KJ6MC Weather Reports


time (UTC)temp
C
wind
direction
speed
KPH
gust
KPH
rain 1hr
cm
rain 24hr
cm
rain mn
cm
humidity
%
barometer
mb
20260901040747 16 82 9.7 20.9 0.00 0.00 0.00 76 1011.7
20260901040647 16 194 9.7 20.9 0.00 0.00 0.00 76 1011.6
20260901040547 16 242 9.7 20.9 0.00 0.00 0.00 76 1011.6
20260901040447 16 240 9.7 20.9 0.00 0.00 0.00 76 1011.6
20260901040347 16 212 9.7 20.9 0.00 0.00 0.00 76 1011.6
20260901040242 16 287 9.7 20.9 0.00 0.00 0.00 76 1011.5
20260901040143 16 238 9.7 20.9 0.00 0.00 0.00 76 1011.6
20260901040042 16 253 9.7 20.9 0.00 0.00 0.00 76 1011.5
20260901035943 16 246 9.7 24.1 0.00 0.00 0.00 76 1011.5
20260901035842 16 226 9.7 24.1 0.00 0.00 0.00 76 1011.5
20260901035734 16 197 9.7 24.1 0.00 0.00 0.00 76 1011.5
20260901035635 16 264 9.7 24.1 0.00 0.00 0.00 76 1011.5
20260901035536 16 262 9.7 24.1 0.00 0.00 0.00 75 1011.5
20260901035435 17 264 11.3 24.1 0.00 0.00 0.00 75 1011.4
20260901035336 17 212 11.3 24.1 0.00 0.00 0.00 75 1011.5
20260901035229 17 246 11.3 24.1 0.00 0.00 0.00 75 1011.5
20260901035128 17 221 11.3 25.7 0.00 0.00 0.00 75 1011.4
20260901035054 17 203 11.3 25.7 0.00 0.00 0.00 75 1011.4
20260901035029 17 219 11.3 25.7 0.00 0.00 0.00 75 1011.5
20260901034944 17 266 11.3 25.7 0.00 0.00 0.00 75 1011.4
20260901034934 17 203 11.3 25.7 0.00 0.00 0.00 75 1011.4
20260901034725 17 212 11.3 25.7 0.00 0.00 0.00 75 1011.4
20260901034622 17 270 11.3 25.7 0.00 0.00 0.00 75 1011.4
20260901034524 17 242 11.3 25.7 0.00 0.00 0.00 75 1011.3
20260901034423 17 225 11.3 25.7 0.00 0.00 0.00 75 1011.3
20260901034333 17 238 11.3 25.7 0.00 0.00 0.00 75 1011.3
20260901034217 17 271 11.3 25.7 0.00 0.00 0.00 75 1011.3
20260901034117 17 229 11.3 22.5 0.00 0.00 0.00 75 1011.2
20260901034017 17 242 11.3 22.5 0.00 0.00 0.00 75 1011.2
20260901033916 17 120 11.3 24.1 0.00 0.00 0.00 75 1011.2
20260901033817 17 263 9.7 24.1 0.00 0.00 0.00 75 1011.2
20260901033711 17 235 11.3 24.1 0.00 0.00 0.00 75 1011.2
20260901033610 17 225 11.3 24.1 0.00 0.00 0.00 76 1011.2
20260901033512 17 203 11.3 24.1 0.00 0.00 0.00 76 1011.2
20260901033411 17 239 11.3 24.1 0.00 0.00 0.00 76 1011.1
20260901033312 17 240 11.3 24.1 0.00 0.00 0.00 76 1011.1
20260901033204 17 218 11.3 24.1 0.00 0.00 0.00 76 1011.1
20260901033105 17 257 11.3 24.1 0.00 0.00 0.00 76 1011.1
20260901033005 17 197 11.3 24.1 0.00 0.00 0.00 76 1011.1
20260901032905 17 260 11.3 22.5 0.00 0.00 0.00 76 1011.1
20260901032805 17 242 11.3 22.5 0.00 0.00 0.00 76 1011.0
20260901032701 17 250 9.7 22.5 0.00 0.00 0.00 75 1011.0
20260901032601 17 239 9.7 22.5 0.00 0.00 0.00 75 1011.0
20260901032517 17 226 9.7 24.1 0.00 0.00 0.00 75 1010.9
20260901032507 17 229 9.7 22.5 0.00 0.00 0.00 75 1011.0
20260901032414 17 262 9.7 22.5 0.00 0.00 0.00 75 1011.0
20260901032404 17 226 9.7 24.1 0.00 0.00 0.00 75 1010.9
20260901032157 17 250 9.7 24.1 0.00 0.00 0.00 75 1010.9
20260901032059 17 257 9.7 24.1 0.00 0.00 0.00 75 1010.9
20260901031958 17 263 9.7 24.1 0.00 0.00 0.00 75 1010.9
20260901031852 17 242 9.7 24.1 0.00 0.00 0.00 75 1010.9
20260901031754 17 259 9.7 24.1 0.00 0.00 0.00 75 1010.8
20260901031734 17 257 9.7 32.2 0.00 0.00 0.00 75 1010.8
20260901031648 17 255 9.7 24.1 0.00 0.00 0.00 75 1010.8
20260901031620 17 233 9.7 24.1 0.00 0.00 0.00 75 1010.8
20260901031449 17 253 9.7 24.1 0.00 0.00 0.00 75 1010.8
20260901031406 17 245 9.7 24.1 0.00 0.00 0.00 75 1010.8
20260901031358 17 221 9.7 32.2 0.00 0.00 0.00 75 1010.8
20260901031148 17 259 9.7 32.2 0.00 0.00 0.00 75 1010.8
20260901031049 17 253 9.7 32.2 0.00 0.00 0.00 75 1010.8
20260901030949 17 232 9.7 32.2 0.00 0.00 0.00 75 1010.8
20260901030849 17 204 9.7 32.2 0.00 0.00 0.00 75 1010.8
20260901030757 17 259 11.3 32.2 0.00 0.00 0.00 75 1010.8
20260901030746 17 246 11.3 32.2 0.00 0.00 0.00 75 1010.8
20260901030649 17 290 9.7 32.2 0.00 0.00 0.00 75 1010.8
20260901030549 17 217 9.7 32.2 0.00 0.00 0.00 75 1010.8
20260901030449 17 245 9.7 32.2 0.00 0.00 0.00 75 1010.7
20260901030349 17 233 9.7 32.2 0.00 0.00 0.00 75 1010.8
20260901030248 17 219 11.3 0.0 0.00 0.00 0.00 75 1010.8
20260901030137 17 236 9.7 27.4 0.00 0.00 0.00 75 1010.7
20260901030037 17 219 11.3 27.4 0.00 0.00 0.00 75 1010.7
20260901025937 17 245 11.3 27.4 0.00 0.00 0.00 75 1010.7
20260901025923 17 134 11.3 27.4 0.00 0.00 0.00 74 1010.7
20260901025836 17 241 9.7 25.7 0.00 0.00 0.00 74 1010.7
20260901025735 17 256 9.7 25.7 0.00 0.00 0.00 74 1010.7
20260901025630 17 210 9.7 25.7 0.00 0.00 0.00 74 1010.7
20260901025531 17 253 11.3 25.7 0.00 0.00 0.00 74 1010.7
20260901025431 17 243 11.3 25.7 0.00 0.00 0.00 74 1010.7
20260901025417 17 262 11.3 25.7 0.00 0.00 0.00 74 1010.7
20260901025330 17 235 11.3 25.7 0.00 0.00 0.00 74 1010.7
20260901025230 17 231 11.3 24.1 0.00 0.00 0.00 74 1010.8
20260901025126 17 212 9.7 22.5 0.00 0.00 0.00 74 1010.7
20260901025025 17 278 9.7 22.5 0.00 0.00 0.00 74 1010.7
20260901024924 17 240 9.7 22.5 0.00 0.00 0.00 74 1010.7
20260901024912 17 195 9.7 22.5 0.00 0.00 0.00 74 1010.7
20260901024825 17 255 9.7 22.5 0.00 0.00 0.00 74 1010.7
20260901024726 17 256 11.3 24.1 0.00 0.00 0.00 74 1010.7
20260901024619 17 193 11.3 24.1 0.00 0.00 0.00 74 1010.7
20260901024519 17 217 11.3 24.1 0.00 0.00 0.00 74 1010.7
20260901024418 17 236 11.3 24.1 0.00 0.00 0.00 73 1010.6
20260901024406 17 228 9.7 24.1 0.00 0.00 0.00 73 1010.8
20260901024319 17 262 9.7 24.1 0.00 0.00 0.00 73 1010.8
20260901024218 17 269 9.7 24.1 0.00 0.00 0.00 73 1010.7
20260901024113 18 214 9.7 24.1 0.00 0.00 0.00 73 1010.6
20260901024012 18 250 11.3 24.1 0.00 0.00 0.00 73 1010.7
20260901023912 18 222 11.3 24.1 0.00 0.00 0.00 73 1010.7
20260901023859 18 288 11.3 24.1 0.00 0.00 0.00 73 1010.7
20260901023813 18 250 11.3 24.1 0.00 0.00 0.00 73 1010.7
20260901023711 18 232 9.7 24.1 0.00 0.00 0.00 73 1010.7
20260901023607 18 229 11.3 24.1 0.00 0.00 0.00 73 1010.6
20260901023508 18 230 11.3 24.1 0.00 0.00 0.00 73 1010.7
20260901023407 18 187 11.3 24.1 0.00 0.00 0.00 72 1010.7
20260901023353 18 200 11.3 24.1 0.00 0.00 0.00 72 1010.7
20260901023306 18 235 11.3 24.1 0.00 0.00 0.00 72 1010.6
20260901023205 18 260 11.3 24.1 0.00 0.00 0.00 72 1010.6
20260901023100 18 274 11.3 24.1 0.00 0.00 0.00 72 1010.7
20260901023000 18 292 9.7 24.1 0.00 0.00 0.00 72 1010.6
20260901022900 18 245 11.3 24.1 0.00 0.00 0.00 72 1010.6
20260901022847 18 243 11.3 24.1 0.00 0.00 0.00 72 1010.6
20260901022800 18 253 11.3 24.1 0.00 0.00 0.00 72 1010.6
20260901022700 18 269 9.7 24.1 0.00 0.00 0.00 72 1010.7
20260901022555 18 256 9.7 24.1 0.00 0.00 0.00 72 1010.6
20260901022454 18 270 9.7 24.1 0.00 0.00 0.00 72 1010.6
20260901022354 18 219 9.7 29.0 0.00 0.00 0.00 72 1010.6
20260901022342 18 264 9.7 29.0 0.00 0.00 0.00 71 1010.6
20260901022254 18 232 9.7 30.6 0.00 0.00 0.00 71 1010.6
20260901022154 18 283 9.7 30.6 0.00 0.00 0.00 71 1010.6
20260901022048 18 232 9.7 30.6 0.00 0.00 0.00 71 1010.6
20260901021948 18 245 11.3 30.6 0.00 0.00 0.00 71 1010.6
20260901021848 18 243 11.3 30.6 0.00 0.00 0.00 71 1010.6
20260901021835 18 245 11.3 30.6 0.00 0.00 0.00 71 1010.6
20260901021749 18 238 9.7 30.6 0.00 0.00 0.00 71 1010.6
20260901021650 18 256 9.7 30.6 0.00 0.00 0.00 71 1010.5
20260901021545 18 238 9.7 30.6 0.00 0.00 0.00 71 1010.5
20260901021443 18 232 9.7 30.6 0.00 0.00 0.00 70 1010.6
20260901021343 18 240 9.7 30.6 0.00 0.00 0.00 70 1010.6
20260901021329 18 280 9.7 30.6 0.00 0.00 0.00 70 1010.6
20260901021243 18 229 9.7 25.7 0.00 0.00 0.00 70 1010.7
20260901021142 18 219 9.7 32.2 0.00 0.00 0.00 70 1010.6
20260901021036 18 211 11.3 32.2 0.00 0.00 0.00 70 1010.6
20260901020936 18 224 11.3 32.2 0.00 0.00 0.00 70 1010.6
20260901020837 18 257 11.3 32.2 0.00 0.00 0.00 70 1010.6
20260901020829 18 214 11.3 32.2 0.00 0.00 0.00 70 1010.6
20260901020737 18 263 11.3 32.2 0.00 0.00 0.00 70 1010.5
20260901020636 18 245 11.3 32.2 0.00 0.00 0.00 69 1010.6
20260901020531 19 256 11.3 32.2 0.00 0.00 0.00 69 1010.6
20260901020431 19 243 11.3 32.2 0.00 0.00 0.00 69 1010.6
20260901020330 19 257 11.3 32.2 0.00 0.00 0.00 69 1010.6
20260901020317 19 236 11.3 32.2 0.00 0.00 0.00 69 1010.6
20260901020231 19 250 9.7 32.2 0.00 0.00 0.00 69 1010.6
20260901020130 19 238 9.7 29.0 0.00 0.00 0.00 69 1010.6
20260901020026 19 266 9.7 29.0 0.00 0.00 0.00 69 1010.6
20260901015925 19 291 9.7 29.0 0.00 0.00 0.00 69 1010.5
20260901015824 19 212 9.7 25.7 0.00 0.00 0.00 68 1010.5
20260901015813 19 264 9.7 25.7 0.00 0.00 0.00 68 1010.5
20260901015725 19 187 9.7 25.7 0.00 0.00 0.00 68 1010.5
20260901015624 19 221 9.7 25.7 0.00 0.00 0.00 68 1010.5
20260901015519 19 274 9.7 25.7 0.00 0.00 0.00 68 1010.4
20260901015419 19 153 9.7 25.7 0.00 0.00 0.00 68 1010.4
20260901015319 19 289 8.0 25.7 0.00 0.00 0.00 68 1010.4
20260901015306 19 222 8.0 25.7 0.00 0.00 0.00 68 1010.4
20260901015218 19 193 8.0 25.7 0.00 0.00 0.00 68 1010.4
20260901015117 20 256 8.0 25.7 0.00 0.00 0.00 67 1010.4
20260901015013 20 262 8.0 24.1 0.00 0.00 0.00 67 1010.4
20260901014913 20 256 8.0 24.1 0.00 0.00 0.00 67 1010.4
20260901014812 20 281 9.7 24.1 0.00 0.00 0.00 67 1010.4
20260901014800 20 228 8.0 24.1 0.00 0.00 0.00 67 1010.4
20260901014712 20 226 8.0 24.1 0.00 0.00 0.00 67 1010.4
20260901014611 20 253 9.7 24.1 0.00 0.00 0.00 67 1010.4
20260901014517 20 248 9.7 24.1 0.00 0.00 0.00 66 1010.4
20260901014507 20 240 9.7 24.1 0.00 0.00 0.00 67 1010.4
20260901014408 20 246 9.7 24.1 0.00 0.00 0.00 67 1010.3
20260901014400 20 253 9.7 24.1 0.00 0.00 0.00 66 1010.4
20260901014206 20 262 9.7 24.1 0.00 0.00 0.00 66 1010.4
20260901014105 20 284 9.7 24.1 0.00 0.00 0.00 66 1010.4
20260901014002 20 224 8.0 22.5 0.00 0.00 0.00 66 1010.4
20260901013902 20 243 8.0 22.5 0.00 0.00 0.00 66 1010.4
20260901013803 20 239 8.0 22.5 0.00 0.00 0.00 66 1010.4
20260901013748 20 230 8.0 22.5 0.00 0.00 0.00 66 1010.4
20260901013702 20 253 6.4 22.5 0.00 0.00 0.00 66 1010.4
20260901013600 20 200 6.4 22.5 0.00 0.00 0.00 65 1010.3
20260901013454 20 280 6.4 22.5 0.00 0.00 0.00 65 1010.3
20260901013355 20 263 6.4 20.9 0.00 0.00 0.00 65 1010.3
20260901013255 20 278 6.4 19.3 0.00 0.00 0.00 65 1010.3
20260901013241 20 267 6.4 19.3 0.00 0.00 0.00 65 1010.3
20260901013154 20 238 6.4 19.3 0.00 0.00 0.00 65 1010.3
20260901013053 20 340 6.4 19.3 0.00 0.00 0.00 64 1010.3
20260901012948 20 229 6.4 19.3 0.00 0.00 0.00 64 1010.3
20260901012849 20 231 6.4 19.3 0.00 0.00 0.00 64 1010.3
20260901012748 20 307 8.0 19.3 0.00 0.00 0.00 64 1010.3
20260901012735 20 317 8.0 19.3 0.00 0.00 0.00 64 1010.3
20260901012649 20 157 8.0 20.9 0.00 0.00 0.00 64 1010.3
20260901012548 20 246 8.0 20.9 0.00 0.00 0.00 64 1010.3
20260901012444 20 288 8.0 20.9 0.00 0.00 0.00 65 1010.3
20260901012342 20 236 6.4 20.9 0.00 0.00 0.00 65 1010.3
20260901012244 20 188 6.4 20.9 0.00 0.00 0.00 65 1010.3
20260901012234 20 246 6.4 20.9 0.00 0.00 0.00 65 1010.3
20260901012142 20 273 6.4 20.9 0.00 0.00 0.00 65 1010.2
20260901012042 20 263 6.4 20.9 0.00 0.00 0.00 64 1010.2
20260901011937 20 257 6.4 20.9 0.00 0.00 0.00 65 1010.2
20260901011837 20 238 8.0 20.9 0.00 0.00 0.00 64 1010.2
20260901011737 20 249 6.4 20.9 0.00 0.00 0.00 64 1010.2
20260901011727 20 207 6.4 20.9 0.00 0.00 0.00 64 1010.2
20260901011637 20 223 6.4 19.3 0.00 0.00 0.00 64 1010.2
20260901011537 20 229 6.4 19.3 0.00 0.00 0.00 64 1010.2
20260901011430 20 257 6.4 19.3 0.00 0.00 0.00 64 1010.2
20260901011330 21 270 8.0 19.3 0.00 0.00 0.00 64 1010.2
20260901011230 21 250 8.0 19.3 0.00 0.00 0.00 64 1010.3
20260901011218 21 236 8.0 19.3 0.00 0.00 0.00 64 1010.2
20260901011131 21 231 8.0 19.3 0.00 0.00 0.00 64 1010.2
20260901011030 21 242 8.0 19.3 0.00 0.00 0.00 64 1010.2
20260901010927 21 243 9.7 20.9 0.00 0.00 0.00 63 1010.3
20260901010824 21 224 9.7 24.1 0.00 0.00 0.00 63 1010.3
20260901010724 21 217 9.7 24.1 0.00 0.00 0.00 63 1010.3
20260901010711 21 246 9.7 24.1 0.00 0.00 0.00 63 1010.3
20260901010625 21 253 9.7 24.1 0.00 0.00 0.00 63 1010.3
20260901010524 21 278 11.3 24.1 0.00 0.00 0.00 63 1010.3
20260901010419 21 233 11.3 29.0 0.00 0.00 0.00 62 1010.3
20260901010318 21 203 11.3 29.0 0.00 0.00 0.00 62 1010.2
20260901010218 21 228 11.3 29.0 0.00 0.00 0.00 62 1010.2
20260901010205 21 226 9.7 29.0 0.00 0.00 0.00 62 1010.2
20260901010119 21 236 9.7 29.0 0.00 0.00 0.00 62 1010.2
20260901010018 21 211 9.7 29.0 0.00 0.00 0.00 62 1010.2
20260901005914 21 312 9.7 29.0 0.00 0.00 0.00 62 1010.2
20260901005812 21 255 8.0 29.0 0.00 0.00 0.00 61 1010.2
20260901005714 21 207 8.0 29.0 0.00 0.00 0.00 61 1010.2
20260901005700 21 248 8.0 29.0 0.00 0.00 0.00 61 1010.2
20260901005613 21 239 8.0 29.0 0.00 0.00 0.00 61 1010.1
20260901005512 21 242 6.4 29.0 0.00 0.00 0.00 61 1010.2
20260901005415 21 228 6.4 24.1 0.00 0.00 0.00 61 1010.2
20260901005406 21 222 6.4 19.3 0.00 0.00 0.00 61 1010.2
20260901005307 21 300 6.4 19.3 0.00 0.00 0.00 61 1010.2
20260901005207 21 238 6.4 24.1 0.00 0.00 0.00 61 1010.2
20260901005106 21 252 6.4 24.1 0.00 0.00 0.00 61 1010.2
20260901005008 21 242 8.0 24.1 0.00 0.00 0.00 61 1010.1
20260901004904 21 239 8.0 24.1 0.00 0.00 0.00 61 1010.1
20260901004804 21 232 8.0 24.1 0.00 0.00 0.00 61 1010.1
20260901004704 21 211 8.0 24.1 0.00 0.00 0.00 61 1010.1
20260901004648 21 263 8.0 24.1 0.00 0.00 0.00 61 1010.1
20260901004602 21 226 8.0 24.1 0.00 0.00 0.00 61 1010.2
20260901004500 21 308 8.0 24.1 0.00 0.00 0.00 60 1010.2
20260901004355 21 238 8.0 24.1 0.00 0.00 0.00 60 1010.3
20260901004254 21 217 8.0 24.1 0.00 0.00 0.00 60 1010.2
20260901004154 21 228 6.4 24.1 0.00 0.00 0.00 60 1010.2
20260901004142 21 287 6.4 24.1 0.00 0.00 0.00 60 1010.2
20260901004125 22 236 6.4 24.1 0.00 0.00 0.00 59 1010.3
20260901004055 21 248 6.4 24.1 0.00 0.00 0.00 60 1010.2
20260901004008 22 270 8.0 24.1 0.00 0.00 0.00 60 1010.3
20260901003850 22 232 6.4 24.1 0.00 0.00 0.00 60 1010.2
20260901003751 22 233 6.4 24.1 0.00 0.00 0.00 59 1010.2
20260901003650 22 262 6.4 24.1 0.00 0.00 0.00 59 1010.3
20260901003550 22 245 8.0 24.1 0.00 0.00 0.00 59 1010.3
20260901003447 22 203 6.4 24.1 0.00 0.00 0.00 60 1010.3
20260901003342 22 250 8.0 24.1 0.00 0.00 0.00 60 1010.3
20260901003242 22 200 6.4 24.1 0.00 0.00 0.00 60 1010.3
20260901003143 22 295 6.4 24.1 0.00 0.00 0.00 59 1010.3
20260901003130 22 214 6.4 24.1 0.00 0.00 0.00 59 1010.3
20260901003112 22 243 8.0 24.1 0.00 0.00 0.00 59 1010.3
20260901003042 22 200 8.0 24.1 0.00 0.00 0.00 59 1010.3
20260901002956 22 215 6.4 24.1 0.00 0.00 0.00 58 1010.4
20260901002836 22 217 8.0 24.1 0.00 0.00 0.00 58 1010.3
20260901002736 22 250 8.0 24.1 0.00 0.00 0.00 58 1010.4
20260901002638 22 241 8.0 24.1 0.00 0.00 0.00 59 1010.4
20260901002536 22 208 8.0 24.1 0.00 0.00 0.00 59 1010.3
20260901002436 22 250 9.7 24.1 0.00 0.00 0.00 59 1010.3
20260901002331 22 274 9.7 24.1 0.00 0.00 0.00 59 1010.3
20260901002230 22 226 9.7 24.1 0.00 0.00 0.00 59 1010.3
20260901002130 22 204 9.7 24.1 0.00 0.00 0.00 58 1010.3
20260901002118 22 234 9.7 24.1 0.00 0.00 0.00 58 1010.3
20260901002030 22 235 9.7 24.1 0.00 0.00 0.00 58 1010.3
20260901001930 22 221 9.7 20.9 0.00 0.00 0.00 58 1010.4
20260901001824 22 241 9.7 20.9 0.00 0.00 0.00 57 1010.4
20260901001724 22 291 9.7 20.9 0.00 0.00 0.00 57 1010.4
20260901001625 22 242 8.0 20.9 0.00 0.00 0.00 57 1010.4
20260901001611 22 259 8.0 20.9 0.00 0.00 0.00 57 1010.4
20260901001524 22 255 8.0 20.9 0.00 0.00 0.00 58 1010.4
20260901001424 22 238 8.0 20.9 0.00 0.00 0.00 58 1010.4
20260901001320 22 219 8.0 20.9 0.00 0.00 0.00 58 1010.4
20260901001218 22 210 9.7 25.7 0.00 0.00 0.00 57 1010.3
20260901001119 22 240 8.0 25.7 0.00 0.00 0.00 58 1010.3
20260901001106 22 259 8.0 25.7 0.00 0.00 0.00 58 1010.3
20260901001019 22 260 8.0 25.7 0.00 0.00 0.00 58 1010.3
20260901000918 22 235 8.0 25.7 0.00 0.00 0.00 57 1010.3
20260901000812 22 235 8.0 25.7 0.00 0.00 0.00 57 1010.4
20260901000715 22 245 8.0 25.7 0.00 0.00 0.00 57 1010.3
20260901000612 22 253 9.7 25.7 0.00 0.00 0.00 57 1010.4
20260901000559 22 226 9.7 25.7 0.00 0.00 0.00 57 1010.4
20260901000512 22 239 9.7 25.7 0.00 0.00 0.00 57 1010.4
20260901000413 22 219 9.7 25.7 0.00 0.00 0.00 57 1010.3
20260901000306 22 231 8.0 25.7 0.00 0.00 0.00 57 1010.4
20260901000207 22 238 9.7 20.9 0.00 0.00 0.00 58 1010.2
20260901000113 22 208 9.7 20.9 0.00 0.00 0.00 57 1010.3
20260901000107 22 264 9.7 20.9 0.00 0.00 0.00 57 1010.3
20260901000008 22 248 9.7 20.9 0.00 0.00 0.00 56 1010.3
20260831235906 22 241 9.7 20.9 0.00 0.00 0.00 56 1010.3
20260831235802 22 222 8.0 20.9 0.00 0.00 0.00 56 1010.3
20260831235701 22 233 8.0 20.9 0.00 0.00 0.00 56 1010.3
20260831235600 22 245 8.0 20.9 0.00 0.00 0.00 56 1010.3
20260831235547 22 252 8.0 20.9 0.00 0.00 0.00 56 1010.3
20260831235500 22 273 8.0 20.9 0.00 0.00 0.00 57 1010.3
20260831235400 22 270 8.0 22.5 0.00 0.00 0.00 56 1010.3
20260831235255 22 238 8.0 22.5 0.00 0.00 0.00 55 1010.3
20260831235154 22 274 6.4 22.5 0.00 0.00 0.00 56 1010.3
20260831235054 23 233 6.4 24.1 0.00 0.00 0.00 56 1010.3
20260831235044 23 248 6.4 24.1 0.00 0.00 0.00 56 1010.3
20260831234954 23 228 8.0 24.1 0.00 0.00 0.00 56 1010.4
20260831234854 23 288 8.0 24.1 0.00 0.00 0.00 56 1010.4
20260831234756 23 248 8.0 24.1 0.00 0.00 0.00 55 1010.4
20260831234751 23 278 8.0 24.1 0.00 0.00 0.00 56 1010.3
20260831234652 23 256 8.0 24.1 0.00 0.00 0.00 56 1010.3
20260831234641 23 259 8.0 24.1 0.00 0.00 0.00 55 1010.4
20260831234450 23 212 8.0 24.1 0.00 0.00 0.00 55 1010.4
20260831234348 23 262 9.7 24.1 0.00 0.00 0.00 55 1010.4
20260831234242 23 239 9.7 24.1 0.00 0.00 0.00 55 1010.4
20260831234142 23 241 8.0 24.1 0.00 0.00 0.00 55 1010.5
20260831234043 23 259 8.0 20.9 0.00 0.00 0.00 55 1010.5
20260831234030 23 214 8.0 20.9 0.00 0.00 0.00 55 1010.5
20260831233942 23 231 8.0 20.9 0.00 0.00 0.00 55 1010.4
20260831233842 23 221 8.0 20.9 0.00 0.00 0.00 55 1010.4
20260831233739 23 228 8.0 20.9 0.00 0.00 0.00 55 1010.4
20260831233639 23 212 8.0 22.5 0.00 0.00 0.00 55 1010.4
20260831233538 23 207 8.0 22.5 0.00 0.00 0.00 55 1010.5
20260831233527 23 152 8.0 22.5 0.00 0.00 0.00 55 1010.5
20260831233438 23 226 8.0 22.5 0.00 0.00 0.00 55 1010.4
20260831233335 23 204 8.0 22.5 0.00 0.00 0.00 55 1010.5
20260831233232 23 284 8.0 22.5 0.00 0.00 0.00 55 1010.4
20260831233131 23 246 8.0 22.5 0.00 0.00 0.00 56 1010.4
20260831233030 23 233 8.0 22.5 0.00 0.00 0.00 55 1010.4
20260831233020 23 201 8.0 22.5 0.00 0.00 0.00 56 1010.5
20260831232930 23 224 8.0 22.5 0.00 0.00 0.00 56 1010.5
20260831232831 23 288 8.0 22.5 0.00 0.00 0.00 55 1010.5
20260831232725 23 215 9.7 20.9 0.00 0.00 0.00 56 1010.5
20260831232624 23 231 9.7 20.9 0.00 0.00 0.00 56 1010.5
20260831232528 23 301 9.7 20.9 0.00 0.00 0.00 56 1010.5
20260831232521 23 256 9.7 20.9 0.00 0.00 0.00 55 1010.6
20260831232425 23 236 9.7 20.9 0.00 0.00 0.00 55 1010.6
20260831232324 23 252 8.0 20.9 0.00 0.00 0.00 56 1010.6
20260831232220 23 278 8.0 20.9 0.00 0.00 0.00 56 1010.6
20260831232118 23 242 9.7 20.9 0.00 0.00 0.00 56 1010.6
20260831232018 23 245 9.7 20.9 0.00 0.00 0.00 56 1010.6
20260831232010 23 233 9.7 20.9 0.00 0.00 0.00 56 1010.6
20260831231918 23 222 9.7 20.9 0.00 0.00 0.00 56 1010.6
20260831231817 23 232 9.7 20.9 0.00 0.00 0.00 55 1010.7
20260831231712 23 238 8.0 20.9 0.00 0.00 0.00 55 1010.7
20260831231612 23 253 8.0 17.7 0.00 0.00 0.00 56 1010.7
20260831231513 23 231 9.7 17.7 0.00 0.00 0.00 56 1010.7
20260831231502 23 231 9.7 17.7 0.00 0.00 0.00 56 1010.7
20260831231413 23 233 9.7 17.7 0.00 0.00 0.00 56 1010.7
20260831231312 23 225 9.7 17.7 0.00 0.00 0.00 55 1010.7
20260831231207 23 219 9.7 17.7 0.00 0.00 0.00 55 1010.7
20260831231106 23 243 9.7 17.7 0.00 0.00 0.00 56 1010.7
20260831231008 23 248 8.0 17.7 0.00 0.00 0.00 56 1010.7
20260831231002 23 215 8.0 17.7 0.00 0.00 0.00 56 1010.7
20260831230906 23 212 8.0 17.7 0.00 0.00 0.00 55 1010.7
20260831230805 23 135 6.4 17.7 0.00 0.00 0.00 55 1010.7
20260831230701 23 172 6.4 17.7 0.00 0.00 0.00 55 1010.7
20260831230600 23 233 6.4 16.1 0.00 0.00 0.00 55 1010.7
20260831230508 23 248 6.4 19.3 0.00 0.00 0.00 55 1010.8
20260831230400 23 193 6.4 22.5 0.00 0.00 0.00 55 1010.7
20260831230259 23 249 6.4 22.5 0.00 0.00 0.00 56 1010.7
20260831230227 23 114 9.7 22.5 0.00 0.00 0.00 57 1010.7
20260831230156 23 271 8.0 22.5 0.00 0.00 0.00 56 1010.7
20260831230113 23 219 8.0 22.5 0.00 0.00 0.00 57 1010.7
20260831225957 23 172 9.7 22.5 0.00 0.00 0.00 57 1010.7
20260831225857 23 314 9.7 27.4 0.00 0.00 0.00 57 1010.7
20260831225753 23 217 9.7 27.4 0.00 0.00 0.00 57 1010.7
20260831225651 23 225 9.7 27.4 0.00 0.00 0.00 56 1010.7
20260831225550 23 273 9.7 27.4 0.00 0.00 0.00 56 1010.8
20260831225502 23 258 9.7 27.4 0.00 0.00 0.00 56 1010.8
20260831225449 23 287 9.7 27.4 0.00 0.00 0.00 56 1010.8
20260831225349 23 190 11.3 27.4 0.00 0.00 0.00 56 1010.8
20260831225248 23 238 9.7 27.4 0.00 0.00 0.00 56 1010.8
20260831225143 23 242 8.0 27.4 0.00 0.00 0.00 55 1010.8
20260831225045 23 248 8.0 27.4 0.00 0.00 0.00 55 1010.9
20260831225003 23 242 6.4 27.4 0.00 0.00 0.00 56 1010.8
20260831224943 23 226 6.4 22.5 0.00 0.00 0.00 56 1010.8
20260831224844 23 245 6.4 22.5 0.00 0.00 0.00 56 1010.8
20260831224742 23 228 6.4 22.5 0.00 0.00 0.00 55 1010.8
20260831224639 23 243 6.4 22.5 0.00 0.00 0.00 55 1010.9
20260831224539 23 197 6.4 22.5 0.00 0.00 0.00 55 1010.8
20260831224502 23 232 6.4 19.3 0.00 0.00 0.00 55 1010.8
20260831224438 23 248 6.4 19.3 0.00 0.00 0.00 55 1010.8
20260831224338 23 294 4.8 19.3 0.00 0.00 0.00 55 1010.8
20260831224237 23 345 4.8 19.3 0.00 0.00 0.00 57 1010.8
20260831224132 23 137 6.4 19.3 0.00 0.00 0.00 56 1010.8
20260831224030 23 211 6.4 19.3 0.00 0.00 0.00 56 1010.9
20260831223931 23 243 6.4 19.3 0.00 0.00 0.00 56 1010.9
20260831223830 23 243 6.4 19.3 0.00 0.00 0.00 56 1010.9
20260831223729 23 252 6.4 19.3 0.00 0.00 0.00 56 1011.0
20260831223624 23 238 6.4 19.3 0.00 0.00 0.00 56 1010.9
20260831223525 23 266 4.8 16.1 0.00 0.00 0.00 56 1010.9
20260831223457 23 217 4.8 16.1 0.00 0.00 0.00 56 1010.9
20260831223424 23 257 4.8 16.1 0.00 0.00 0.00 55 1010.9
20260831223324 23 290 6.4 16.1 0.00 0.00 0.00 56 1010.9
20260831223224 23 253 6.4 19.3 0.00 0.00 0.00 55 1011.0
20260831223123 23 255 6.4 19.3 0.00 0.00 0.00 55 1011.0
20260831223023 23 278 6.4 19.3 0.00 0.00 0.00 56 1011.0
20260831222958 23 225 6.4 19.3 0.00 0.00 0.00 56 1011.0
20260831222923 23 248 6.4 19.3 0.00 0.00 0.00 56 1011.0
20260831222821 23 296 6.4 19.3 0.00 0.00 0.00 56 1010.9
20260831222718 23 278 6.4 19.3 0.00 0.00 0.00 56 1011.0
20260831222613 23 274 6.4 19.3 0.00 0.00 0.00 56 1011.0
20260831222512 23 238 6.4 24.1 0.00 0.00 0.00 56 1011.0
20260831222503 23 232 6.4 24.1 0.00 0.00 0.00 56 1011.0
20260831222412 23 260 6.4 24.1 0.00 0.00 0.00 56 1011.0
20260831222313 23 242 8.0 24.1 0.00 0.00 0.00 56 1011.0
20260831222214 23 256 8.0 24.1 0.00 0.00 0.00 56 1010.9
20260831222112 23 235 8.0 24.1 0.00 0.00 0.00 56 1010.9
20260831222010 23 242 8.0 24.1 0.00 0.00 0.00 56 1011.0
20260831221958 23 263 8.0 24.1 0.00 0.00 0.00 56 1011.0
20260831221909 23 269 8.0 24.1 0.00 0.00 0.00 56 1011.0
20260831221809 23 261 9.7 24.1 0.00 0.00 0.00 56 1011.0
20260831221708 23 243 9.7 24.1 0.00 0.00 0.00 56 1011.0
20260831221609 23 229 9.7 24.1 0.00 0.00 0.00 56 1011.0
20260831221509 23 229 8.0 24.1 0.00 0.00 0.00 55 1011.1
20260831221458 23 232 8.0 24.1 0.00 0.00 0.00 55 1011.1
20260831221408 23 257 6.4 24.1 0.00 0.00 0.00 55 1011.0
20260831221308 23 240 6.4 19.3 0.00 0.00 0.00 56 1011.1
20260831221225 23 259 6.4 19.3 0.00 0.00 0.00 55 1011.1
20260831221210 23 257 6.4 19.3 0.00 0.00 0.00 56 1011.1
20260831221109 23 225 6.4 19.3 0.00 0.00 0.00 55 1011.1
20260831221007 23 221 6.4 19.3 0.00 0.00 0.00 55 1011.1
20260831220906 23 260 6.4 19.3 0.00 0.00 0.00 55 1011.1
20260831220805 23 185 6.4 19.3 0.00 0.00 0.00 55 1011.1
20260831220704 23 256 6.4 19.3 0.00 0.00 0.00 55 1011.2
20260831220603 23 224 6.4 19.3 0.00 0.00 0.00 55 1011.2
20260831220504 24 222 4.8 19.3 0.00 0.00 0.00 55 1011.2
20260831220456 24 223 4.8 19.3 0.00 0.00 0.00 55 1011.2
20260831220402 24 266 4.8 17.7 0.00 0.00 0.00 55 1011.2
20260831220302 24 219 4.8 17.7 0.00 0.00 0.00 55 1011.2
20260831220203 24 262 4.8 17.7 0.00 0.00 0.00 55 1011.1
20260831220100 24 243 6.4 17.7 0.00 0.00 0.00 55 1011.2
20260831220004 23 256 6.4 17.7 0.00 0.00 0.00 56 1011.1
20260831215956 23 243 6.4 17.7 0.00 0.00 0.00 56 1011.1
20260831215858 23 238 6.4 17.7 0.00 0.00 0.00 56 1011.1
20260831215756 23 219 6.4 17.7 0.00 0.00 0.00 56 1011.2
20260831215654 23 219 6.4 20.9 0.00 0.00 0.00 57 1011.2
20260831215554 23 253 8.0 22.5 0.00 0.00 0.00 56 1011.1
20260831215453 23 253 8.0 22.5 0.00 0.00 0.00 56 1011.2
20260831215352 23 201 9.7 22.5 0.00 0.00 0.00 56 1011.2
20260831215252 23 257 9.7 22.5 0.00 0.00 0.00 56 1011.2
20260831215152 23 190 9.7 22.5 0.00 0.00 0.00 57 1011.2
20260831215053 23 198 9.7 22.5 0.00 0.00 0.00 57 1011.2
20260831214953 23 225 11.3 24.1 0.00 0.00 0.00 56 1011.2
20260831214848 23 291 9.7 24.1 0.00 0.00 0.00 56 1011.2
20260831214746 23 266 9.7 24.1 0.00 0.00 0.00 56 1011.2
20260831214646 23 238 9.7 24.1 0.00 0.00 0.00 56 1011.3
20260831214546 23 267 8.0 24.1 0.00 0.00 0.00 55 1011.2
20260831214447 23 267 8.0 24.1 0.00 0.00 0.00 56 1011.2
20260831214340 23 266 8.0 24.1 0.00 0.00 0.00 55 1011.3
20260831214241 23 257 8.0 24.1 0.00 0.00 0.00 55 1011.3
20260831214142 23 116 8.0 24.1 0.00 0.00 0.00 54 1011.3
20260831214040 24 248 6.4 24.1 0.00 0.00 0.00 54 1011.3
20260831213941 24 311 6.4 20.9 0.00 0.00 0.00 55 1011.3
20260831213837 23 224 6.4 20.9 0.00 0.00 0.00 56 1011.3
20260831213736 23 277 8.0 20.9 0.00 0.00 0.00 56 1011.4
20260831213636 23 235 8.0 20.9 0.00 0.00 0.00 55 1011.4
20260831213536 23 203 8.0 20.9 0.00 0.00 0.00 55 1011.4
20260831213436 23 200 6.4 20.9 0.00 0.00 0.00 55 1011.4
20260831213331 23 250 6.4 20.9 0.00 0.00 0.00 55 1011.4
20260831213230 23 248 6.4 19.3 0.00 0.00 0.00 55 1011.4
20260831213130 23 262 6.4 20.9 0.00 0.00 0.00 55 1011.4
20260831213031 23 242 6.4 20.9 0.00 0.00 0.00 55 1011.4
20260831212929 23 284 8.0 20.9 0.00 0.00 0.00 54 1011.4
20260831212823 23 236 6.4 20.9 0.00 0.00 0.00 54 1011.4
20260831212722 23 262 6.4 20.9 0.00 0.00 0.00 54 1011.4
20260831212623 23 270 8.0 20.9 0.00 0.00 0.00 56 1011.4
20260831212523 23 230 8.0 22.5 0.00 0.00 0.00 56 1011.5
20260831212423 23 229 9.7 22.5 0.00 0.00 0.00 55 1011.4
20260831212318 23 239 9.7 22.5 0.00 0.00 0.00 55 1011.5
20260831212216 23 246 8.0 22.5 0.00 0.00 0.00 54 1011.5
20260831212117 23 263 8.0 22.5 0.00 0.00 0.00 55 1011.5
20260831212017 23 240 6.4 22.5 0.00 0.00 0.00 54 1011.5
20260831211931 23 218 6.4 22.5 0.00 0.00 0.00 54 1011.5
20260831211810 23 246 8.0 22.5 0.00 0.00 0.00 55 1011.5
20260831211711 23 170 8.0 22.5 0.00 0.00 0.00 54 1011.5
20260831211611 23 268 8.0 22.5 0.00 0.00 0.00 54 1011.5
20260831211512 23 229 6.4 20.9 0.00 0.00 0.00 55 1011.5
20260831211412 23 218 6.4 20.9 0.00 0.00 0.00 55 1011.4
20260831211306 23 235 8.0 20.9 0.00 0.00 0.00 55 1011.5
20260831211206 23 229 8.0 20.9 0.00 0.00 0.00 55 1011.5
20260831211106 23 238 8.0 20.9 0.00 0.00 0.00 54 1011.5
20260831211006 23 253 8.0 20.9 0.00 0.00 0.00 52 1011.5
20260831210904 23 233 8.0 20.9 0.00 0.00 0.00 52 1011.5
20260831210759 23 219 8.0 20.9 0.00 0.00 0.00 52 1011.5
20260831210700 23 259 8.0 20.9 0.00 0.00 0.00 51 1011.6
20260831210559 23 228 8.0 20.9 0.00 0.00 0.00 52 1011.6
20260831210458 23 260 8.0 17.7 0.00 0.00 0.00 53 1011.5
20260831210412 23 229 8.0 17.7 0.00 0.00 0.00 53 1011.5
20260831210255 23 163 6.4 17.7 0.00 0.00 0.00 54 1011.5
20260831210154 23 233 6.4 17.7 0.00 0.00 0.00 54 1011.5
20260831210055 23 222 8.0 17.7 0.00 0.00 0.00 53 1011.6
20260831205955 23 130 8.0 17.7 0.00 0.00 0.00 53 1011.6
20260831205853 23 248 8.0 19.3 0.00 0.00 0.00 53 1011.6
20260831205833 23 296 6.4 19.3 0.00 0.00 0.00 54 1011.5
20260831205748 23 219 8.0 19.3 0.00 0.00 0.00 53 1011.6
20260831205722 23 236 6.4 19.3 0.00 0.00 0.00 52 1011.6
20260831205546 23 241 6.4 19.3 0.00 0.00 0.00 53 1011.6
20260831205503 23 287 6.4 19.3 0.00 0.00 0.00 55 1011.5
20260831205452 23 296 6.4 19.3 0.00 0.00 0.00 54 1011.5
20260831205241 23 233 6.4 19.3 0.00 0.00 0.00 54 1011.5
20260831205140 23 240 6.4 19.3 0.00 0.00 0.00 53 1011.6
20260831205040 23 224 6.4 19.3 0.00 0.00 0.00 54 1011.6
20260831204940 23 250 6.4 19.3 0.00 0.00 0.00 54 1011.6
20260831204842 23 211 6.4 14.5 0.00 0.00 0.00 55 1011.6
20260831204736 23 255 6.4 14.5 0.00 0.00 0.00 55 1011.6
20260831204635 23 236 8.0 16.1 0.00 0.00 0.00 55 1011.6
20260831204552 23 243 8.0 16.1 0.00 0.00 0.00 54 1011.6
20260831204534 23 236 8.0 16.1 0.00 0.00 0.00 55 1011.6
20260831204450 23 222 8.0 16.1 0.00 0.00 0.00 54 1011.6
20260831204440 23 243 8.0 16.1 0.00 0.00 0.00 54 1011.6
20260831204231 23 215 8.0 16.1 0.00 0.00 0.00 53 1011.6
20260831204128 23 222 8.0 19.3 0.00 0.00 0.00 53 1011.6
20260831204048 23 221 6.4 19.3 0.00 0.00 0.00 54 1011.5
20260831204029 23 193 8.0 19.3 0.00 0.00 0.00 53 1011.6
20260831203944 23 217 6.4 19.3 0.00 0.00 0.00 53 1011.6
20260831203934 23 221 6.4 19.3 0.00 0.00 0.00 54 1011.5
20260831203724 23 215 6.4 19.3 0.00 0.00 0.00 53 1011.6
20260831203625 23 281 6.4 19.3 0.00 0.00 0.00 54 1011.6
20260831203525 23 226 6.4 19.3 0.00 0.00 0.00 54 1011.6
20260831203425 23 224 6.4 19.3 0.00 0.00 0.00 54 1011.5
20260831203324 23 232 6.4 19.3 0.00 0.00 0.00 53 1011.6
20260831203216 23 236 6.4 17.7 0.00 0.00 0.00 54 1011.7
20260831203117 23 214 4.8 16.1 0.00 0.00 0.00 54 1011.7
20260831203036 23 221 4.8 16.1 0.00 0.00 0.00 55 1011.7
20260831203016 23 262 4.8 16.1 0.00 0.00 0.00 54 1011.6
20260831202932 23 237 4.8 16.1 0.00 0.00 0.00 55 1011.6
20260831202922 23 221 4.8 16.1 0.00 0.00 0.00 55 1011.7
20260831202711 23 239 4.8 16.1 0.00 0.00 0.00 55 1011.7
20260831202611 23 256 6.4 16.1 0.00 0.00 0.00 54 1011.7
20260831202510 23 170 6.4 16.1 0.00 0.00 0.00 54 1011.7
20260831202411 23 263 6.4 16.1 0.00 0.00 0.00 56 1011.7
20260831202311 23 243 6.4 16.1 0.00 0.00 0.00 56 1011.7
20260831202204 23 252 6.4 16.1 0.00 0.00 0.00 57 1011.7
20260831202104 22 221 6.4 16.1 0.00 0.00 0.00 56 1011.7
20260831202006 22 256 6.4 16.1 0.00 0.00 0.00 55 1011.7
20260831201904 22 243 6.4 16.1 0.00 0.00 0.00 55 1011.7
20260831201805 22 160 6.4 16.1 0.00 0.00 0.00 54 1011.8
20260831201658 22 246 6.4 16.1 0.00 0.00 0.00 54 1011.7
20260831201559 22 236 6.4 16.1 0.00 0.00 0.00 53 1011.8
20260831201458 22 211 8.0 19.3 0.00 0.00 0.00 54 1011.8
20260831201359 22 81 6.4 19.3 0.00 0.00 0.00 55 1011.8
20260831201259 22 238 8.0 19.3 0.00 0.00 0.00 56 1011.8
20260831201156 22 231 8.0 19.3 0.00 0.00 0.00 58 1011.9
20260831201056 22 275 9.7 19.3 0.00 0.00 0.00 57 1011.9
20260831200954 22 233 9.7 19.3 0.00 0.00 0.00 57 1011.8
20260831200855 22 240 8.0 19.3 0.00 0.00 0.00 57 1011.9
20260831200753 22 198 8.0 19.3 0.00 0.00 0.00 57 1011.9
20260831200646 22 239 8.0 19.3 0.00 0.00 0.00 57 1011.9
20260831200546 22 250 6.4 19.3 0.00 0.00 0.00 57 1011.8
20260831200446 22 208 6.4 17.7 0.00 0.00 0.00 57 1011.9
20260831200347 22 235 4.8 16.1 0.00 0.00 0.00 56 1011.9
20260831200247 22 225 4.8 16.1 0.00 0.00 0.00 56 1011.9
20260831200141 23 235 4.8 16.1 0.00 0.00 0.00 56 1012.0
20260831200040 23 240 3.2 14.5 0.00 0.00 0.00 56 1011.9
20260831195940 23 250 3.2 14.5 0.00 0.00 0.00 56 1011.9
20260831195840 23 221 3.2 14.5 0.00 0.00 0.00 56 1012.0
20260831195741 22 264 3.2 14.5 0.00 0.00 0.00 56 1011.9
20260831195637 22 240 3.2 14.5 0.00 0.00 0.00 57 1012.0
20260831195534 22 210 3.2 17.7 0.00 0.00 0.00 58 1012.0
20260831195435 22 250 4.8 17.7 0.00 0.00 0.00 57 1012.0
20260831195335 22 259 3.2 17.7 0.00 0.00 0.00 57 1012.0
20260831195235 22 270 4.8 17.7 0.00 0.00 0.00 58 1012.0
20260831195134 22 316 4.8 17.7 0.00 0.00 0.00 59 1012.0
20260831195032 22 187 6.4 19.3 0.00 0.00 0.00 59 1012.0
20260831194954 21 238 8.0 20.9 0.00 0.00 0.00 60 1012.1
20260831194930 22 218 6.4 20.9 0.00 0.00 0.00 60 1012.0
20260831194843 22 194 8.0 20.9 0.00 0.00 0.00 60 1012.1
20260831194833 21 238 8.0 20.9 0.00 0.00 0.00 60 1012.1
20260831194622 21 246 9.7 22.5 0.00 0.00 0.00 59 1012.1
20260831194523 21 218 9.7 22.5 0.00 0.00 0.00 60 1012.2
20260831194422 21 276 8.0 22.5 0.00 0.00 0.00 60 1012.2
20260831194322 21 224 8.0 22.5 0.00 0.00 0.00 60 1012.2
20260831194223 21 255 8.0 22.5 0.00 0.00 0.00 59 1012.2
20260831194116 21 250 8.0 22.5 0.00 0.00 0.00 60 1012.2
20260831194016 21 239 9.7 22.5 0.00 0.00 0.00 60 1012.3
20260831193917 21 250 8.0 22.5 0.00 0.00 0.00 61 1012.2
20260831193816 21 207 8.0 22.5 0.00 0.00 0.00 60 1012.3
20260831193718 21 237 6.4 22.5 0.00 0.00 0.00 60 1012.3
20260831193610 21 233 6.4 20.9 0.00 0.00 0.00 62 1012.4
20260831193511 21 219 6.4 20.9 0.00 0.00 0.00 61 1012.4
20260831193410 21 233 6.4 20.9 0.00 0.00 0.00 61 1012.4
20260831193311 21 243 8.0 24.1 0.00 0.00 0.00 61 1012.4
20260831193211 21 219 8.0 24.1 0.00 0.00 0.00 60 1012.4
20260831193105 21 232 6.4 24.1 0.00 0.00 0.00 60 1012.4
20260831193006 21 241 6.4 24.1 0.00 0.00 0.00 61 1012.4
20260831192905 21 312 6.4 24.1 0.00 0.00 0.00 61 1012.4
20260831192804 21 224 8.0 24.1 0.00 0.00 0.00 61 1012.4
20260831192705 21 325 8.0 24.1 0.00 0.00 0.00 61 1012.4
20260831192600 21 246 8.0 24.1 0.00 0.00 0.00 61 1012.5
20260831192458 21 217 8.0 24.1 0.00 0.00 0.00 61 1012.5
20260831192427 21 253 6.4 19.3 0.00 0.00 0.00 62 1012.4
20260831192358 21 214 6.4 24.1 0.00 0.00 0.00 60 1012.4
20260831192316 21 229 6.4 19.3 0.00 0.00 0.00 61 1012.4
20260831192158 21 264 6.4 19.3 0.00 0.00 0.00 62 1012.4
20260831192055 21 235 8.0 19.3 0.00 0.00 0.00 62 1012.4
20260831191952 21 236 9.7 24.1 0.00 0.00 0.00 62 1012.5
20260831191853 21 226 9.7 24.1 0.00 0.00 0.00 62 1012.5
20260831191752 21 259 8.0 24.1 0.00 0.00 0.00 62 1012.5
20260831191705 21 246 9.7 24.1 0.00 0.00 0.00 63 1012.5
20260831191653 21 253 9.7 24.1 0.00 0.00 0.00 63 1012.5
20260831191546 21 264 9.7 24.1 0.00 0.00 0.00 63 1012.5
20260831191446 20 232 9.7 24.1 0.00 0.00 0.00 63 1012.4
20260831191347 20 239 9.7 24.1 0.00 0.00 0.00 63 1012.4
20260831191246 20 238 9.7 24.1 0.00 0.00 0.00 62 1012.4
20260831191206 20 224 8.0 24.1 0.00 0.00 0.00 62 1012.5
20260831191145 20 223 8.0 24.1 0.00 0.00 0.00 62 1012.5
20260831191042 21 232 8.0 24.1 0.00 0.00 0.00 62 1012.5
20260831190943 21 271 6.4 20.9 0.00 0.00 0.00 62 1012.5
20260831190842 21 222 6.4 20.9 0.00 0.00 0.00 62 1012.5
20260831190743 21 231 6.4 20.9 0.00 0.00 0.00 62 1012.4
20260831190705 21 240 6.4 20.9 0.00 0.00 0.00 62 1012.5
20260831190640 21 233 6.4 20.9 0.00 0.00 0.00 62 1012.5
20260831190534 21 295 6.4 20.9 0.00 0.00 0.00 63 1012.5
20260831190435 21 267 8.0 24.1 0.00 0.00 0.00 63 1012.5
20260831190426 20 211 8.0 24.1 0.00 0.00 0.00 63 1012.5
20260831190335 21 273 8.0 24.1 0.00 0.00 0.00 63 1012.5
20260831190316 21 225 6.4 24.1 0.00 0.00 0.00 64 1012.5
20260831190134 20 245 8.0 24.1 0.00 0.00 0.00 63 1012.5
20260831190028 20 289 8.0 24.1 0.00 0.00 0.00 63 1012.5
20260831185928 20 230 8.0 24.1 0.00 0.00 0.00 64 1012.5
20260831185829 20 250 8.0 24.1 0.00 0.00 0.00 64 1012.5
20260831185728 20 280 9.7 24.1 0.00 0.00 0.00 64 1012.5
20260831185710 20 222 9.7 24.1 0.00 0.00 0.00 64 1012.5
20260831185630 20 221 9.7 24.1 0.00 0.00 0.00 63 1012.5
20260831185524 20 239 9.7 24.1 0.00 0.00 0.00 63 1012.6
20260831185423 20 182 9.7 24.1 0.00 0.00 0.00 64 1012.6
20260831185323 20 286 9.7 24.1 0.00 0.00 0.00 64 1012.5
20260831185222 20 248 11.3 24.1 0.00 0.00 0.00 64 1012.5
20260831185206 20 291 11.3 24.1 0.00 0.00 0.00 64 1012.6
20260831185123 20 254 11.3 24.1 0.00 0.00 0.00 64 1012.6
20260831185016 20 291 11.3 24.1 0.00 0.00 0.00 64 1012.5
20260831184917 20 170 11.3 24.1 0.00 0.00 0.00 63 1012.5
20260831184816 20 218 11.3 24.1 0.00 0.00 0.00 64 1012.5
20260831184716 20 215 9.7 24.1 0.00 0.00 0.00 64 1012.6
20260831184704 20 257 11.3 24.1 0.00 0.00 0.00 64 1012.5
20260831184615 20 187 11.3 24.1 0.00 0.00 0.00 64 1012.5
20260831184510 20 231 9.7 24.1 0.00 0.00 0.00 64 1012.6
20260831184426 20 242 8.0 24.1 0.00 0.00 0.00 64 1012.6
20260831184411 20 224 9.7 24.1 0.00 0.00 0.00 64 1012.5
20260831184318 20 225 9.7 24.1 0.00 0.00 0.00 64 1012.5
20260831184310 20 253 8.0 24.1 0.00 0.00 0.00 64 1012.6
20260831184110 20 253 8.0 24.1 0.00 0.00 0.00 63 1012.5
20260831184006 20 243 8.0 19.3 0.00 0.00 0.00 64 1012.5
20260831183904 20 221 6.4 20.9 0.00 0.00 0.00 64 1012.5
20260831183804 20 192 6.4 20.9 0.00 0.00 0.00 63 1012.5
20260831183710 20 253 6.4 20.9 0.00 0.00 0.00 63 1012.5
20260831183704 20 246 6.4 20.9 0.00 0.00 0.00 63 1012.5
20260831183604 20 224 4.8 20.9 0.00 0.00 0.00 64 1012.5
20260831183500 20 186 6.4 20.9 0.00 0.00 0.00 64 1012.5
20260831183401 20 259 6.4 20.9 0.00 0.00 0.00 65 1012.5
20260831183300 20 292 6.4 20.9 0.00 0.00 0.00 65 1012.4
20260831183206 20 291 6.4 20.9 0.00 0.00 0.00 66 1012.5
20260831183200 20 291 6.4 20.9 0.00 0.00 0.00 66 1012.5
20260831183058 20 226 8.0 20.9 0.00 0.00 0.00 66 1012.5
20260831182955 19 253 8.0 20.9 0.00 0.00 0.00 66 1012.5
20260831182853 19 294 9.7 25.7 0.00 0.00 0.00 67 1012.5
20260831182752 19 224 9.7 25.7 0.00 0.00 0.00 66 1012.5
20260831182704 19 204 9.7 25.7 0.00 0.00 0.00 67 1012.5
20260831182653 19 229 9.7 25.7 0.00 0.00 0.00 67 1012.5
20260831182552 19 183 9.7 25.7 0.00 0.00 0.00 67 1012.5
20260831182453 19 260 9.7 25.7 0.00 0.00 0.00 67 1012.5
20260831182350 19 214 9.7 25.7 0.00 0.00 0.00 66 1012.5
20260831182250 19 256 9.7 25.7 0.00 0.00 0.00 67 1012.4
20260831182203 19 246 9.7 25.7 0.00 0.00 0.00 67 1012.5
20260831182148 19 250 9.7 25.7 0.00 0.00 0.00 67 1012.5
20260831182049 19 219 9.7 25.7 0.00 0.00 0.00 67 1012.5
20260831181948 19 235 8.0 25.7 0.00 0.00 0.00 66 1012.5
20260831181927 19 238 8.0 20.9 0.00 0.00 0.00 67 1012.6
20260831181849 19 242 8.0 24.1 0.00 0.00 0.00 66 1012.5
20260831181814 19 300 6.4 24.1 0.00 0.00 0.00 67 1012.6
20260831181647 19 229 8.0 20.9 0.00 0.00 0.00 68 1012.6
20260831181547 19 266 8.0 20.9 0.00 0.00 0.00 68 1012.6
20260831181444 19 226 6.4 20.9 0.00 0.00 0.00 68 1012.6
20260831181344 19 232 6.4 20.9 0.00 0.00 0.00 68 1012.6
20260831181245 19 223 8.0 20.9 0.00 0.00 0.00 67 1012.7
20260831181204 19 248 6.4 20.9 0.00 0.00 0.00 67 1012.6
20260831181145 19 226 6.4 20.9 0.00 0.00 0.00 67 1012.6
20260831181045 19 245 6.4 20.9 0.00 0.00 0.00 68 1012.7
20260831180945 19 229 6.4 20.9 0.00 0.00 0.00 68 1012.7
20260831180843 19 221 8.0 20.9 0.00 0.00 0.00 68 1012.7
20260831180741 18 233 8.0 20.9 0.00 0.00 0.00 68 1012.7
20260831180702 18 243 6.4 20.9 0.00 0.00 0.00 68 1012.7
20260831180640 18 243 6.4 20.9 0.00 0.00 0.00 68 1012.7
20260831180541 18 238 6.4 19.3 0.00 0.00 0.00 68 1012.6
20260831180440 18 248 8.0 19.3 0.00 0.00 0.00 68 1012.6
20260831180338 18 214 8.0 19.3 0.00 0.00 0.00 67 1012.7
20260831180234 19 253 6.4 19.3 0.00 0.00 0.00 67 1012.6
20260831180157 19 239 6.4 17.7 0.00 0.00 0.00 68 1012.7
20260831180133 19 250 6.4 17.7 0.00 0.00 0.00 68 1012.7
20260831180033 19 239 6.4 17.7 0.00 0.00 0.00 68 1012.7
20260831175933 19 253 6.4 19.3 0.00 0.00 0.00 67 1012.7
20260831175832 19 229 6.4 19.3 0.00 0.00 0.00 68 1012.7
20260831175726 18 235 6.4 19.3 0.00 0.00 0.00 68 1012.6
20260831175652 18 290 6.4 19.3 0.00 0.00 0.00 68 1012.7
20260831175628 18 208 6.4 19.3 0.00 0.00 0.00 68 1012.7
20260831175527 18 266 8.0 19.3 0.00 0.00 0.00 68 1012.6
20260831175426 18 277 8.0 19.3 0.00 0.00 0.00 68 1012.7
20260831175326 18 276 8.0 19.3 0.00 0.00 0.00 68 1012.6
20260831175222 18 243 8.0 20.9 0.00 0.00 0.00 69 1012.7
20260831175145 18 227 8.0 20.9 0.00 0.00 0.00 69 1012.6
20260831175121 18 217 8.0 20.9 0.00 0.00 0.00 69 1012.6
20260831175021 18 240 8.0 20.9 0.00 0.00 0.00 69 1012.6
20260831174920 18 242 8.0 20.9 0.00 0.00 0.00 69 1012.6
20260831174820 18 248 8.0 20.9 0.00 0.00 0.00 69 1012.5
20260831174715 18 221 8.0 20.9 0.00 0.00 0.00 69 1012.5
20260831174639 18 205 6.4 20.9 0.00 0.00 0.00 69 1012.5
20260831174615 18 253 6.4 20.9 0.00 0.00 0.00 69 1012.5
20260831174515 18 217 6.4 20.9 0.00 0.00 0.00 70 1012.5
20260831174415 18 228 6.4 20.9 0.00 0.00 0.00 70 1012.5
20260831174314 18 256 6.4 20.9 0.00 0.00 0.00 70 1012.5
20260831174208 18 232 6.4 19.3 0.00 0.00 0.00 70 1012.4
20260831174133 18 201 6.4 19.3 0.00 0.00 0.00 70 1012.4
20260831174108 18 238 6.4 19.3 0.00 0.00 0.00 70 1012.5
20260831174009 18 281 8.0 20.9 0.00 0.00 0.00 70 1012.4
20260831173908 18 236 8.0 24.1 0.00 0.00 0.00 70 1012.5
20260831173852 18 278 9.7 24.1 0.00 0.00 0.00 71 1012.5
20260831173809 18 233 8.0 24.1 0.00 0.00 0.00 70 1012.5
20260831173741 18 311 9.7 24.1 0.00 0.00 0.00 70 1012.5
20260831173602 18 256 9.7 24.1 0.00 0.00 0.00 71 1012.5
20260831173505 18 287 9.7 24.1 0.00 0.00 0.00 71 1012.5
20260831173402 18 235 9.7 24.1 0.00 0.00 0.00 71 1012.5
20260831173301 18 256 9.7 24.1 0.00 0.00 0.00 71 1012.5
20260831173156 18 264 9.7 24.1 0.00 0.00 0.00 71 1012.6
20260831173121 18 249 9.7 24.1 0.00 0.00 0.00 70 1012.6
20260831173056 18 242 8.0 24.1 0.00 0.00 0.00 70 1012.6
20260831172957 18 208 8.0 24.1 0.00 0.00 0.00 71 1012.5
20260831172856 18 225 6.4 16.1 0.00 0.00 0.00 71 1012.5
20260831172756 18 267 8.0 17.7 0.00 0.00 0.00 71 1012.5
20260831172650 18 222 6.4 17.7 0.00 0.00 0.00 72 1012.5
20260831172615 18 217 6.4 17.7 0.00 0.00 0.00 72 1012.6
20260831172550 18 225 6.4 17.7 0.00 0.00 0.00 72 1012.6
20260831172450 18 193 6.4 17.7 0.00 0.00 0.00 72 1012.5
20260831172351 18 188 8.0 17.7 0.00 0.00 0.00 71 1012.5
20260831172250 18 250 8.0 22.5 0.00 0.00 0.00 72 1012.4
20260831172144 18 235 8.0 22.5 0.00 0.00 0.00 73 1012.4
20260831172109 18 242 9.7 22.5 0.00 0.00 0.00 73 1012.4
20260831172044 17 233 9.7 22.5 0.00 0.00 0.00 73 1012.4
20260831171945 17 257 9.7 22.5 0.00 0.00 0.00 73 1012.4
20260831171845 17 245 9.7 22.5 0.00 0.00 0.00 72 1012.4
20260831171744 17 269 9.7 22.5 0.00 0.00 0.00 73 1012.5
20260831171641 17 203 9.7 22.5 0.00 0.00 0.00 73 1012.4
20260831171603 17 225 9.7 22.5 0.00 0.00 0.00 73 1012.4
20260831171541 17 155 9.7 22.5 0.00 0.00 0.00 73 1012.4
20260831171441 17 224 9.7 22.5 0.00 0.00 0.00 73 1012.4
20260831171340 17 271 9.7 22.5 0.00 0.00 0.00 73 1012.4
20260831171238 17 256 8.0 19.3 0.00 0.00 0.00 73 1012.4
20260831171132 17 211 8.0 19.3 0.00 0.00 0.00 73 1012.4
20260831171058 17 245 6.4 19.3 0.00 0.00 0.00 73 1012.4
20260831171032 17 250 6.4 19.3 0.00 0.00 0.00 73 1012.4
20260831170932 17 257 6.4 19.3 0.00 0.00 0.00 73 1012.4
20260831170832 17 253 6.4 19.3 0.00 0.00 0.00 73 1012.4
20260831170815 17 276 6.4 19.3 0.00 0.00 0.00 74 1012.4
20260831170732 17 239 6.4 19.3 0.00 0.00 0.00 73 1012.4
20260831170705 17 256 6.4 19.3 0.00 0.00 0.00 74 1012.4
20260831170526 17 248 6.4 19.3 0.00 0.00 0.00 74 1012.4
20260831170426 17 246 8.0 19.3 0.00 0.00 0.00 74 1012.3
20260831170326 17 233 8.0 25.7 0.00 0.00 0.00 74 1012.4
20260831170225 17 226 8.0 25.7 0.00 0.00 0.00 74 1012.3
20260831170123 17 277 8.0 25.7 0.00 0.00 0.00 75 1012.4
20260831170058 17 268 8.0 25.7 0.00 0.00 0.00 74 1012.3
20260831170021 17 281 8.0 25.7 0.00 0.00 0.00 74 1012.3
20260831165921 17 298 8.0 25.7 0.00 0.00 0.00 74 1012.3
20260831165820 17 248 8.0 25.7 0.00 0.00 0.00 73 1012.4
20260831165720 17 231 6.4 25.7 0.00 0.00 0.00 74 1012.3
20260831165615 17 282 6.4 25.7 0.00 0.00 0.00 74 1012.3
20260831165539 17 226 6.4 25.7 0.00 0.00 0.00 73 1012.3
20260831165514 17 260 6.4 25.7 0.00 0.00 0.00 73 1012.3
20260831165414 17 231 6.4 25.7 0.00 0.00 0.00 72 1012.3
20260831165314 17 203 4.8 17.7 0.00 0.00 0.00 73 1012.3
20260831165255 17 245 6.4 17.7 0.00 0.00 0.00 75 1012.3
20260831165213 17 224 6.4 14.5 0.00 0.00 0.00 75 1012.2
20260831165145 17 228 6.4 17.7 0.00 0.00 0.00 75 1012.3
20260831165009 17 269 8.0 17.7 0.00 0.00 0.00 75 1012.2
20260831164908 17 235 8.0 19.3 0.00 0.00 0.00 75 1012.3
20260831164808 17 228 8.0 19.3 0.00 0.00 0.00 75 1012.2
20260831164709 17 214 8.0 19.3 0.00 0.00 0.00 75 1012.3
20260831164602 17 210 8.0 19.3 0.00 0.00 0.00 75 1012.3
20260831164527 17 245 8.0 19.3 0.00 0.00 0.00 75 1012.3
20260831164505 17 275 6.4 19.3 0.00 0.00 0.00 75 1012.3
20260831164402 17 284 6.4 19.3 0.00 0.00 0.00 76 1012.3
20260831164302 17 266 8.0 19.3 0.00 0.00 0.00 76 1012.3
20260831164202 17 245 6.4 19.3 0.00 0.00 0.00 75 1012.3
20260831164057 17 248 8.0 22.5 0.00 0.00 0.00 75 1012.3
20260831164022 17 249 8.0 22.5 0.00 0.00 0.00 75 1012.3
20260831164009 17 219 8.0 22.5 0.00 0.00 0.00 76 1012.2
20260831163957 17 246 6.4 22.5 0.00 0.00 0.00 75 1012.3
20260831163856 17 239 6.4 22.5 0.00 0.00 0.00 75 1012.3
20260831163846 17 243 6.4 22.5 0.00 0.00 0.00 75 1012.2
20260831163656 17 273 8.0 22.5 0.00 0.00 0.00 76 1012.2
20260831163626 17 262 8.0 22.5 0.00 0.00 0.00 76 1012.2
20260831163450 17 231 8.0 22.5 0.00 0.00 0.00 76 1012.2
20260831163350 17 210 9.7 22.5 0.00 0.00 0.00 77 1012.2
20260831163251 17 201 9.7 22.5 0.00 0.00 0.00 76 1012.2
20260831163150 17 264 9.7 22.5 0.00 0.00 0.00 76 1012.1
20260831163044 17 218 8.0 17.7 0.00 0.00 0.00 76 1012.2
20260831163009 17 238 8.0 17.7 0.00 0.00 0.00 76 1012.1
20260831162944 17 212 8.0 17.7 0.00 0.00 0.00 77 1012.1
20260831162845 17 232 8.0 16.1 0.00 0.00 0.00 77 1012.1
20260831162744 17 287 8.0 27.4 0.00 0.00 0.00 77 1012.1
20260831162725 17 240 6.4 27.4 0.00 0.00 0.00 77 1012.2
20260831162646 17 304 8.0 27.4 0.00 0.00 0.00 77 1012.2
20260831162616 17 260 8.0 27.4 0.00 0.00 0.00 77 1012.1
20260831162438 17 264 6.4 27.4 0.00 0.00 0.00 76 1012.2
20260831162338 17 239 6.4 27.4 0.00 0.00 0.00 76 1012.2
20260831162239 17 245 6.4 27.4 0.00 0.00 0.00 76 1012.2
20260831162218 17 231 6.4 27.4 0.00 0.00 0.00 77 1012.2
20260831162138 17 266 6.4 27.4 0.00 0.00 0.00 76 1012.2
20260831162107 17 253 6.4 27.4 0.00 0.00 0.00 77 1012.2
20260831161932 17 245 6.4 27.4 0.00 0.00 0.00 76 1012.2
20260831161832 17 249 6.4 27.4 0.00 0.00 0.00 76 1012.2
20260831161733 17 205 6.4 17.7 0.00 0.00 0.00 77 1012.2
20260831161631 17 242 6.4 17.7 0.00 0.00 0.00 77 1012.2
20260831161528 17 273 6.4 17.7 0.00 0.00 0.00 77 1012.2
20260831161451 17 222 6.4 17.7 0.00 0.00 0.00 77 1012.2
20260831161426 16 228 6.4 17.7 0.00 0.00 0.00 77 1012.2
20260831161326 16 236 6.4 17.7 0.00 0.00 0.00 77 1012.1
20260831161226 16 259 8.0 17.7 0.00 0.00 0.00 78 1012.1
20260831161126 16 218 8.0 17.7 0.00 0.00 0.00 78 1012.1
20260831161021 16 294 8.0 19.3 0.00 0.00 0.00 78 1012.2
20260831160952 16 218 8.0 19.3 0.00 0.00 0.00 78 1012.2
20260831160920 16 232 8.0 19.3 0.00 0.00 0.00 78 1012.2
20260831160820 16 232 6.4 19.3 0.00 0.00 0.00 78 1012.1
20260831160727 16 250 8.0 20.9 0.00 0.00 0.00 78 1012.2
20260831160721 16 239 6.4 19.3 0.00 0.00 0.00 79 1012.2
20260831160623 16 228 8.0 20.9 0.00 0.00 0.00 78 1012.2
20260831160615 16 219 8.0 20.9 0.00 0.00 0.00 78 1012.2
20260831160414 16 193 8.0 20.9 0.00 0.00 0.00 78 1012.2
20260831160314 16 238 6.4 20.9 0.00 0.00 0.00 79 1012.2
20260831160215 16 229 6.4 20.9 0.00 0.00 0.00 79 1012.1
20260831160114 16 235 6.4 20.9 0.00 0.00 0.00 79 1012.1
20260831160009 16 135 6.4 24.1 0.00 0.00 0.00 79 1012.1
20260831155956 16 176 6.4 24.1 0.00 0.00 0.00 79 1012.1
20260831155908 16 270 8.0 24.1 0.00 0.00 0.00 79 1012.1
20260831155808 16 249 8.0 24.1 0.00 0.00 0.00 79 1012.2
20260831155709 16 253 8.0 24.1 0.00 0.00 0.00 79 1012.2
20260831155608 16 226 8.0 24.1 0.00 0.00 0.00 79 1012.1
20260831155507 16 248 8.0 24.1 0.00 0.00 0.00 80 1012.1
20260831155452 16 225 8.0 24.1 0.00 0.00 0.00 80 1012.1
20260831155407 16 321 9.7 24.1 0.00 0.00 0.00 80 1012.1
20260831155306 16 236 9.7 24.1 0.00 0.00 0.00 80 1012.1
20260831155204 16 245 11.3 24.1 0.00 0.00 0.00 80 1012.1
20260831155105 16 232 11.3 24.1 0.00 0.00 0.00 80 1012.1
20260831155005 16 233 11.3 24.1 0.00 0.00 0.00 81 1012.1
20260831154952 16 207 11.3 24.1 0.00 0.00 0.00 81 1012.1
20260831154904 16 247 11.3 24.1 0.00 0.00 0.00 80 1012.2
20260831154805 16 218 11.3 24.1 0.00 0.00 0.00 80 1012.2
20260831154705 16 238 11.3 24.1 0.00 0.00 0.00 81 1012.1
20260831154604 16 250 11.3 24.1 0.00 0.00 0.00 81 1012.1
20260831154504 16 240 9.7 20.9 0.00 0.00 0.00 81 1012.1
20260831154451 16 276 9.7 20.9 0.00 0.00 0.00 81 1012.1
20260831154404 16 255 9.7 20.9 0.00 0.00 0.00 81 1012.1
20260831154304 16 224 9.7 20.9 0.00 0.00 0.00 81 1012.1
20260831154204 16 235 9.7 20.9 0.00 0.00 0.00 81 1012.1
20260831154105 16 231 8.0 20.9 0.00 0.00 0.00 80 1012.1
20260831154004 16 266 8.0 19.3 0.00 0.00 0.00 80 1012.1
20260831153950 16 224 8.0 19.3 0.00 0.00 0.00 80 1012.1
20260831153903 16 235 8.0 19.3 0.00 0.00 0.00 80 1012.1
20260831153759 16 201 6.4 19.3 0.00 0.00 0.00 80 1012.1
20260831153717 16 259 6.4 19.3 0.00 0.00 0.00 81 1012.1
20260831153658 16 252 6.4 19.3 0.00 0.00 0.00 81 1012.1
20260831153605 16 230 6.4 19.3 0.00 0.00 0.00 81 1012.1
20260831153556 16 233 6.4 19.3 0.00 0.00 0.00 81 1012.1
20260831153358 16 219 6.4 19.3 0.00 0.00 0.00 81 1012.1
20260831153252 16 248 6.4 19.3 0.00 0.00 0.00 81 1012.1
20260831153153 16 253 6.4 19.3 0.00 0.00 0.00 80 1012.1
20260831153054 16 248 6.4 19.3 0.00 0.00 0.00 81 1012.1
20260831152956 16 245 6.4 19.3 0.00 0.00 0.00 81 1012.1
20260831152950 16 232 6.4 19.3 0.00 0.00 0.00 81 1012.1
20260831152852 16 240 6.4 19.3 0.00 0.00 0.00 81 1012.1
20260831152750 16 218 6.4 19.3 0.00 0.00 0.00 81 1012.1
20260831152650 16 238 4.8 19.3 0.00 0.00 0.00 82 1012.1
20260831152550 15 250 6.4 19.3 0.00 0.00 0.00 82 1012.0
20260831152449 15 280 6.4 19.3 0.00 0.00 0.00 82 1012.0
20260831152345 15 231 6.4 19.3 0.00 0.00 0.00 82 1012.0
20260831152240 15 264 4.8 19.3 0.00 0.00 0.00 81 1012.0
20260831152141 15 238 4.8 16.1 0.00 0.00 0.00 82 1012.0
20260831152040 15 239 4.8 16.1 0.00 0.00 0.00 82 1012.0
20260831151948 15 264 6.4 16.1 0.00 0.00 0.00 82 1012.0
20260831151941 15 266 6.4 16.1 0.00 0.00 0.00 82 1012.0
20260831151840 15 340 6.4 17.7 0.00 0.00 0.00 82 1012.0
20260831151737 15 203 6.4 17.7 0.00 0.00 0.00 82 1012.0
20260831151635 15 236 6.4 17.7 0.00 0.00 0.00 83 1012.0
20260831151535 15 252 6.4 17.7 0.00 0.00 0.00 83 1012.0
20260831151446 15 233 8.0 17.7 0.00 0.00 0.00 83 1012.0
20260831151434 15 271 8.0 17.7 0.00 0.00 0.00 83 1012.0
20260831151333 15 221 8.0 17.7 0.00 0.00 0.00 83 1012.0
20260831151229 15 215 8.0 17.7 0.00 0.00 0.00 83 1012.0
20260831151212 15 277 6.4 17.7 0.00 0.00 0.00 83 1012.0
20260831151129 15 253 8.0 17.7 0.00 0.00 0.00 83 1012.0
20260831151056 15 223 8.0 17.7 0.00 0.00 0.00 83 1012.0
20260831150928 15 259 6.4 17.7 0.00 0.00 0.00 83 1012.0
20260831150827 15 263 6.4 17.7 0.00 0.00 0.00 83 1012.0
20260831150722 15 236 6.4 17.7 0.00 0.00 0.00 83 1011.9
20260831150625 15 238 6.4 17.7 0.00 0.00 0.00 83 1011.9
20260831150523 15 169 4.8 17.7 0.00 0.00 0.00 83 1011.9
20260831150446 15 243 4.8 17.7 0.00 0.00 0.00 83 1011.9
20260831150423 15 219 4.8 17.7 0.00 0.00 0.00 83 1011.9
20260831150322 15 245 4.8 14.5 0.00 0.00 0.00 83 1011.8
20260831150219 15 231 4.8 14.5 0.00 0.00 0.00 83 1011.8
20260831150116 15 162 3.2 14.5 0.00 0.00 0.00 84 1011.8
20260831150017 15 266 3.2 14.5 0.00 0.00 0.00 84 1011.8
20260831145946 15 231 3.2 14.5 0.00 0.00 0.00 84 1011.8
20260831145917 15 212 3.2 14.5 0.00 0.00 0.00 84 1011.8
20260831145816 15 233 3.2 14.5 0.00 0.00 0.00 84 1011.8
20260831145710 15 233 3.2 14.5 0.00 0.00 0.00 84 1011.8
20260831145611 15 218 3.2 14.5 0.00 0.00 0.00 84 1011.7
20260831145509 15 242 4.8 14.5 0.00 0.00 0.00 84 1011.7
20260831145446 15 257 4.8 12.9 0.00 0.00 0.00 84 1011.7
20260831145408 15 289 3.2 12.9 0.00 0.00 0.00 84 1011.7
20260831145309 15 235 4.8 12.9 0.00 0.00 0.00 84 1011.7
20260831145208 15 218 4.8 12.9 0.00 0.00 0.00 85 1011.7
20260831145203 15 235 3.2 12.9 0.00 0.00 0.00 84 1011.7
20260831145103 15 250 4.8 12.9 0.00 0.00 0.00 84 1011.7
20260831145054 15 233 4.8 12.9 0.00 0.00 0.00 85 1011.7
20260831144925 15 263 4.8 17.7 0.00 0.00 0.00 85 1011.6
20260831144902 15 224 4.8 12.9 0.00 0.00 0.00 85 1011.7
20260831144817 15 226 4.8 14.5 0.00 0.00 0.00 85 1011.6
20260831144658 15 238 4.8 17.7 0.00 0.00 0.00 85 1011.6
20260831144557 15 236 4.8 17.7 0.00 0.00 0.00 85 1011.6
20260831144548 15 250 4.8 17.7 0.00 0.00 0.00 85 1011.6
20260831144356 15 226 4.8 17.7 0.00 0.00 0.00 85 1011.6
20260831144255 15 256 4.8 17.7 0.00 0.00 0.00 85 1011.6
20260831144150 15 256 4.8 17.7 0.00 0.00 0.00 85 1011.6
20260831144050 15 221 4.8 17.7 0.00 0.00 0.00 85 1011.6
20260831143951 14 243 4.8 17.7 0.00 0.00 0.00 85 1011.6
20260831143936 14 245 4.8 17.7 0.00 0.00 0.00 85 1011.6
20260831143851 14 279 4.8 17.7 0.00 0.00 0.00 85 1011.6
20260831143750 14 212 4.8 17.7 0.00 0.00 0.00 85 1011.5
20260831143646 14 252 4.8 17.7 0.00 0.00 0.00 85 1011.6
20260831143544 14 321 4.8 17.7 0.00 0.00 0.00 85 1011.5
20260831143445 14 238 4.8 16.1 0.00 0.00 0.00 86 1011.5
20260831143430 14 250 4.8 16.1 0.00 0.00 0.00 86 1011.5
20260831143344 14 230 4.8 16.1 0.00 0.00 0.00 86 1011.5
20260831143244 14 212 3.2 16.1 0.00 0.00 0.00 86 1011.5
20260831143140 14 271 4.8 16.1 0.00 0.00 0.00 86 1011.5
20260831143038 14 203 4.8 16.1 0.00 0.00 0.00 86 1011.5
20260831142939 14 232 4.8 16.1 0.00 0.00 0.00 86 1011.5
20260831142925 14 221 4.8 16.1 0.00 0.00 0.00 86 1011.5
20260831142838 14 297 3.2 16.1 0.00 0.00 0.00 86 1011.5
20260831142738 14 191 3.2 14.5 0.00 0.00 0.00 86 1011.5
20260831142647 14 232 4.8 16.1 0.00 0.00 0.00 86 1011.5
20260831142640 14 250 3.2 14.5 0.00 0.00 0.00 86 1011.5
20260831142536 14 231 3.2 14.5 0.00 0.00 0.00 86 1011.4
20260831142524 14 267 4.8 14.5 0.00 0.00 0.00 86 1011.5
20260831142335 14 245 4.8 20.9 0.00 0.00 0.00 86 1011.5
20260831142232 14 293 4.8 20.9 0.00 0.00 0.00 86 1011.4
20260831142128 14 250 6.4 20.9 0.00 0.00 0.00 86 1011.4
20260831142026 14 284 6.4 20.9 0.00 0.00 0.00 86 1011.4
20260831141926 14 291 6.4 20.9 0.00 0.00 0.00 87 1011.4
20260831141913 14 203 6.4 20.9 0.00 0.00 0.00 87 1011.4
20260831141826 14 256 6.4 20.9 0.00 0.00 0.00 86 1011.4
20260831141726 14 266 6.4 20.9 0.00 0.00 0.00 87 1011.4
20260831141621 14 280 6.4 20.9 0.00 0.00 0.00 87 1011.4
20260831141520 14 300 8.0 20.9 0.00 0.00 0.00 87 1011.3
20260831141421 14 231 8.0 20.9 0.00 0.00 0.00 87 1011.4
20260831141406 14 235 6.4 20.9 0.00 0.00 0.00 87 1011.3
20260831141320 14 243 6.4 16.1 0.00 0.00 0.00 87 1011.3
20260831141220 14 236 6.4 16.1 0.00 0.00 0.00 87 1011.3
20260831141116 14 240 6.4 16.1 0.00 0.00 0.00 87 1011.3
20260831141014 14 214 6.4 16.1 0.00 0.00 0.00 87 1011.3
20260831140914 14 224 4.8 16.1 0.00 0.00 0.00 87 1011.3
20260831140900 14 245 4.8 16.1 0.00 0.00 0.00 87 1011.2
20260831140815 14 243 4.8 16.1 0.00 0.00 0.00 87 1011.2
20260831140714 13 219 4.8 16.1 0.00 0.00 0.00 87 1011.2
20260831140626 13 259 3.2 14.5 0.00 0.00 0.00 87 1011.1
20260831140609 13 233 4.8 16.1 0.00 0.00 0.00 87 1011.2
20260831140508 13 256 4.8 16.1 0.00 0.00 0.00 87 1011.2
20260831140440 13 222 3.2 14.5 0.00 0.00 0.00 87 1011.1
20260831140308 13 226 3.2 14.5 0.00 0.00 0.00 87 1011.1
20260831140208 13 271 3.2 16.1 0.00 0.00 0.00 87 1011.1
20260831140105 13 233 3.2 16.1 0.00 0.00 0.00 87 1011.1
20260831140004 13 240 3.2 16.1 0.00 0.00 0.00 87 1011.0
20260831135902 13 262 3.2 16.1 0.00 0.00 0.00 87 1011.0
20260831135848 13 226 3.2 16.1 0.00 0.00 0.00 87 1011.0
20260831135803 13 228 3.2 16.1 0.00 0.00 0.00 87 1011.0
20260831135702 13 231 3.2 16.1 0.00 0.00 0.00 87 1011.0
20260831135559 13 238 3.2 16.1 0.00 0.00 0.00 87 1011.0
20260831135459 13 248 3.2 16.1 0.00 0.00 0.00 87 1011.0
20260831135358 13 267 3.2 16.1 0.00 0.00 0.00 87 1011.0
20260831135342 13 231 3.2 16.1 0.00 0.00 0.00 87 1011.0
20260831135259 13 217 4.8 16.1 0.00 0.00 0.00 87 1011.0
20260831135156 13 271 4.8 14.5 0.00 0.00 0.00 87 1011.0
20260831135053 13 253 4.8 14.5 0.00 0.00 0.00 87 1011.0
20260831134950 13 234 3.2 14.5 0.00 0.00 0.00 87 1011.0
20260831134850 13 243 3.2 14.5 0.00 0.00 0.00 87 1011.0
20260831134836 13 232 3.2 14.5 0.00 0.00 0.00 87 1011.0
20260831134750 13 301 3.2 14.5 0.00 0.00 0.00 87 1010.9
20260831134649 13 242 3.2 14.5 0.00 0.00 0.00 87 1011.0
20260831134545 13 248 3.2 14.5 0.00 0.00 0.00 87 1011.0
20260831134444 13 250 3.2 14.5 0.00 0.00 0.00 87 1011.0
20260831134329 13 250 3.2 14.5 0.00 0.00 0.00 87 1010.9
20260831134244 13 274 3.2 14.5 0.00 0.00 0.00 87 1010.9
20260831134144 13 236 3.2 12.9 0.00 0.00 0.00 87 1010.9
20260831134042 13 217 3.2 12.9 0.00 0.00 0.00 87 1011.0
20260831133942 13 226 3.2 12.9 0.00 0.00 0.00 87 1010.9
20260831133824 13 232 3.2 12.9 0.00 0.00 0.00 87 1010.9
20260831133740 13 232 3.2 12.9 0.00 0.00 0.00 87 1010.9
20260831133639 13 253 3.2 12.9 0.00 0.00 0.00 87 1010.9
20260831133535 13 263 3.2 12.9 0.00 0.00 0.00 87 1010.8
20260831133432 13 264 3.2 12.9 0.00 0.00 0.00 87 1010.8
20260831133333 13 305 3.2 11.3 0.00 0.00 0.00 87 1010.8
20260831133318 13 263 3.2 11.3 0.00 0.00 0.00 87 1010.8
20260831133232 13 259 3.2 11.3 0.00 0.00 0.00 87 1010.8
20260831133132 13 259 3.2 11.3 0.00 0.00 0.00 87 1010.8
20260831133026 13 222 3.2 14.5 0.00 0.00 0.00 87 1010.8
20260831132927 13 253 3.2 14.5 0.00 0.00 0.00 87 1010.8
20260831132826 13 270 3.2 14.5 0.00 0.00 0.00 87 1010.8
20260831132813 13 231 3.2 14.5 0.00 0.00 0.00 87 1010.8
20260831132726 13 263 3.2 14.5 0.00 0.00 0.00 87 1010.8
20260831132626 13 228 3.2 14.5 0.00 0.00 0.00 87 1010.7
20260831132523 13 222 4.8 14.5 0.00 0.00 0.00 87 1010.8
20260831132423 13 297 4.8 14.5 0.00 0.00 0.00 87 1010.8
20260831132322 13 246 4.8 14.5 0.00 0.00 0.00 87 1010.7
20260831132307 13 232 4.8 14.5 0.00 0.00 0.00 87 1010.8
20260831132222 13 242 4.8 14.5 0.00 0.00 0.00 87 1010.8
20260831132120 13 259 4.8 14.5 0.00 0.00 0.00 87 1010.7
20260831132016 13 204 4.8 14.5 0.00 0.00 0.00 87 1010.8
20260831131914 13 250 4.8 14.5 0.00 0.00 0.00 87 1010.8
20260831131814 13 248 4.8 14.5 0.00 0.00 0.00 87 1010.7
20260831131800 13 241 4.8 14.5 0.00 0.00 0.00 87 1010.8
20260831131715 13 244 4.8 14.5 0.00 0.00 0.00 87 1010.8
20260831131618 13 255 4.8 14.5 0.00 0.00 0.00 87 1010.8
20260831131517 13 241 4.8 14.5 0.00 0.00 0.00 87 1010.8
20260831131508 13 246 4.8 14.5 0.00 0.00 0.00 87 1010.8
20260831131409 13 212 4.8 14.5 0.00 0.00 0.00 87 1010.8
20260831131400 13 259 4.8 14.5 0.00 0.00 0.00 87 1010.8
20260831131208 13 225 4.8 14.5 0.00 0.00 0.00 87 1010.7
20260831131108 13 217 4.8 14.5 0.00 0.00 0.00 87 1010.7
20260831131006 13 273 4.8 17.7 0.00 0.00 0.00 87 1010.8
20260831130907 13 233 4.8 17.7 0.00 0.00 0.00 87 1010.8
20260831130806 13 231 4.8 17.7 0.00 0.00 0.00 87 1010.8
20260831130748 13 232 4.8 17.7 0.00 0.00 0.00 87 1010.8
20260831130704 13 286 4.8 17.7 0.00 0.00 0.00 86 1010.7
20260831130602 13 245 4.8 17.7 0.00 0.00 0.00 86 1010.7
20260831130456 13 245 4.8 17.7 0.00 0.00 0.00 86 1010.7
20260831130357 13 243 6.4 17.7 0.00 0.00 0.00 87 1010.6
20260831130256 13 257 4.8 17.7 0.00 0.00 0.00 87 1010.6
20260831130241 13 226 4.8 17.7 0.00 0.00 0.00 87 1010.6
20260831130156 13 228 4.8 17.7 0.00 0.00 0.00 87 1010.7
20260831130056 13 239 4.8 17.7 0.00 0.00 0.00 87 1010.7
20260831125950 13 267 3.2 12.9 0.00 0.00 0.00 87 1010.7
20260831125851 13 240 3.2 12.9 0.00 0.00 0.00 87 1010.7
20260831125750 13 287 3.2 12.9 0.00 0.00 0.00 87 1010.7
20260831125736 13 260 3.2 12.9 0.00 0.00 0.00 87 1010.7
20260831125650 13 193 3.2 12.9 0.00 0.00 0.00 87 1010.7
20260831125550 13 236 3.2 12.9 0.00 0.00 0.00 87 1010.6
20260831125449 13 240 3.2 12.9 0.00 0.00 0.00 87 1010.6
20260831125349 13 243 3.2 9.7 0.00 0.00 0.00 86 1010.6
20260831125248 13 229 3.2 11.3 0.00 0.00 0.00 86 1010.6
20260831125230 13 203 3.2 11.3 0.00 0.00 0.00 86 1010.6
20260831125147 13 239 3.2 11.3 0.00 0.00 0.00 86 1010.6
20260831125043 13 233 3.2 11.3 0.00 0.00 0.00 86 1010.6
20260831124941 13 233 3.2 11.3 0.00 0.00 0.00 86 1010.6
20260831124838 13 235 3.2 11.3 0.00 0.00 0.00 86 1010.6
20260831124738 13 266 3.2 11.3 0.00 0.00 0.00 86 1010.6
20260831124724 13 217 3.2 11.3 0.00 0.00 0.00 86 1010.6
20260831124639 13 290 3.2 11.3 0.00 0.00 0.00 86 1010.6
20260831124538 13 243 3.2 11.3 0.00 0.00 0.00 86 1010.6
20260831124442 13 260 1.6 9.7 0.00 0.00 0.00 86 1010.5
20260831124437 13 243 3.2 11.3 0.00 0.00 0.00 86 1010.5
20260831124337 13 236 3.2 11.3 0.00 0.00 0.00 86 1010.5
20260831124324 13 248 1.6 9.7 0.00 0.00 0.00 86 1010.5
20260831124134 13 239 1.6 6.4 0.00 0.00 0.00 86 1010.5
20260831124031 13 236 1.6 4.8 0.00 0.00 0.00 86 1010.5
20260831123933 13 238 1.6 6.4 0.00 0.00 0.00 86 1010.5
20260831123830 14 236 1.6 6.4 0.00 0.00 0.00 86 1010.4
20260831123712 14 236 1.6 6.4 0.00 0.00 0.00 86 1010.4
20260831123628 14 243 1.6 8.0 0.00 0.00 0.00 86 1010.4
20260831123526 14 231 1.6 8.0 0.00 0.00 0.00 86 1010.4
20260831123420 14 239 3.2 8.0 0.00 0.00 0.00 86 1010.4
20260831123320 14 233 3.2 11.3 0.00 0.00 0.00 86 1010.3
20260831123206 14 233 3.2 11.3 0.00 0.00 0.00 86 1010.3
20260831123121 14 233 3.2 11.3 0.00 0.00 0.00 86 1010.3
20260831123020 14 231 3.2 11.3 0.00 0.00 0.00 86 1010.4
20260831122914 14 221 3.2 11.3 0.00 0.00 0.00 86 1010.4
20260831122815 14 204 3.2 11.3 0.00 0.00 0.00 86 1010.4
20260831122715 14 248 3.2 11.3 0.00 0.00 0.00 86 1010.4
20260831122700 14 248 3.2 11.3 0.00 0.00 0.00 86 1010.4
20260831122615 14 263 3.2 11.3 0.00 0.00 0.00 86 1010.4
20260831122514 14 243 3.2 11.3 0.00 0.00 0.00 86 1010.4
20260831122408 14 224 3.2 11.3 0.00 0.00 0.00 86 1010.4
20260831122308 14 240 3.2 9.7 0.00 0.00 0.00 86 1010.4
20260831122208 14 243 3.2 12.9 0.00 0.00 0.00 86 1010.4
20260831122156 14 231 3.2 12.9 0.00 0.00 0.00 86 1010.4
20260831122108 14 232 3.2 12.9 0.00 0.00 0.00 85 1010.4
20260831122008 14 233 3.2 12.9 0.00 0.00 0.00 86 1010.4
20260831121902 14 239 3.2 12.9 0.00 0.00 0.00 85 1010.4
20260831121803 14 248 3.2 12.9 0.00 0.00 0.00 85 1010.3
20260831121703 14 242 3.2 12.9 0.00 0.00 0.00 85 1010.4
20260831121648 14 239 3.2 12.9 0.00 0.00 0.00 85 1010.4
20260831121603 14 257 3.2 12.9 0.00 0.00 0.00 85 1010.4
20260831121503 14 236 3.2 12.9 0.00 0.00 0.00 85 1010.4
20260831121358 14 205 3.2 12.9 0.00 0.00 0.00 85 1010.4
20260831121257 14 239 3.2 12.9 0.00 0.00 0.00 85 1010.4
20260831121142 14 236 3.2 8.0 0.00 0.00 0.00 85 1010.4
20260831121056 14 206 3.2 11.3 0.00 0.00 0.00 85 1010.4
20260831120956 14 239 3.2 14.5 0.00 0.00 0.00 85 1010.4
20260831120854 14 239 4.8 14.5 0.00 0.00 0.00 85 1010.4
20260831120755 14 219 4.8 14.5 0.00 0.00 0.00 85 1010.4
20260831120654 14 252 4.8 14.5 0.00 0.00 0.00 85 1010.4
20260831120637 14 268 4.8 14.5 0.00 0.00 0.00 85 1010.4
20260831120612 14 231 4.8 16.1 0.00 0.00 0.00 85 1010.4
20260831120552 14 224 4.8 14.5 0.00 0.00 0.00 85 1010.4
20260831120459 14 238 4.8 16.1 0.00 0.00 0.00 85 1010.4
20260831120346 14 233 6.4 16.1 0.00 0.00 0.00 85 1010.4
20260831120245 14 245 6.4 16.1 0.00 0.00 0.00 85 1010.4
20260831120236 14 255 4.8 16.1 0.00 0.00 0.00 85 1010.4
20260831120044 14 248 4.8 16.1 0.00 0.00 0.00 85 1010.3
20260831115944 14 250 4.8 16.1 0.00 0.00 0.00 85 1010.4
20260831115838 14 242 4.8 16.1 0.00 0.00 0.00 85 1010.4
20260831115738 14 242 4.8 16.1 0.00 0.00 0.00 85 1010.4
20260831115639 14 231 4.8 16.1 0.00 0.00 0.00 85 1010.4
20260831115623 14 226 4.8 16.1 0.00 0.00 0.00 85 1010.4
20260831115604 14 229 4.8 12.9 0.00 0.00 0.00 85 1010.3
20260831115539 14 218 4.8 16.1 0.00 0.00 0.00 85 1010.4
20260831115449 14 203 4.8 12.9 0.00 0.00 0.00 85 1010.4
20260831115334 14 245 4.8 12.9 0.00 0.00 0.00 85 1010.4
20260831115233 14 204 4.8 12.9 0.00 0.00 0.00 85 1010.3
20260831115224 14 229 4.8 12.9 0.00 0.00 0.00 85 1010.3
20260831115032 14 271 4.8 12.9 0.00 0.00 0.00 84 1010.3
20260831114932 14 229 4.8 12.9 0.00 0.00 0.00 85 1010.3
20260831114827 14 250 4.8 12.9 0.00 0.00 0.00 85 1010.3
20260831114726 14 238 4.8 12.9 0.00 0.00 0.00 84 1010.3
20260831114627 14 238 4.8 12.9 0.00 0.00 0.00 84 1010.3
20260831114615 14 235 4.8 12.9 0.00 0.00 0.00 84 1010.3
20260831114526 14 235 4.8 12.9 0.00 0.00 0.00 85 1010.3
20260831114426 14 262 4.8 12.9 0.00 0.00 0.00 84 1010.3
20260831114322 14 224 3.2 12.9 0.00 0.00 0.00 84 1010.3
20260831114220 14 236 3.2 12.9 0.00 0.00 0.00 85 1010.3
20260831114120 14 235 3.2 8.0 0.00 0.00 0.00 84 1010.3
20260831114106 14 236 3.2 8.0 0.00 0.00 0.00 84 1010.3
20260831114021 14 203 3.2 8.0 0.00 0.00 0.00 85 1010.3
20260831113920 14 239 3.2 8.0 0.00 0.00 0.00 85 1010.3
20260831113815 14 222 3.2 8.0 0.00 0.00 0.00 85 1010.3
20260831113714 14 219 3.2 8.0 0.00 0.00 0.00 85 1010.3
20260831113614 14 207 3.2 8.0 0.00 0.00 0.00 85 1010.3
20260831113600 14 228 3.2 8.0 0.00 0.00 0.00 85 1010.3
20260831113514 14 238 3.2 8.0 0.00 0.00 0.00 85 1010.3
20260831113413 14 236 3.2 8.0 0.00 0.00 0.00 85 1010.3
20260831113308 14 250 3.2 8.0 0.00 0.00 0.00 85 1010.2
20260831113209 14 238 1.6 8.0 0.00 0.00 0.00 85 1010.3
20260831113108 14 224 1.6 4.8 0.00 0.00 0.00 84 1010.3
20260831113054 14 146 1.6 4.8 0.00 0.00 0.00 84 1010.3
20260831113008 14 200 1.6 4.8 0.00 0.00 0.00 84 1010.3
20260831112909 14 155 1.6 4.8 0.00 0.00 0.00 84 1010.3
20260831112805 14 155 1.6 4.8 0.00 0.00 0.00 84 1010.2
20260831112702 14 149 1.6 4.8 0.00 0.00 0.00 84 1010.2
20260831112604 14 232 1.6 4.8 0.00 0.00 0.00 84 1010.2
20260831112549 14 243 1.6 4.8 0.00 0.00 0.00 84 1010.2
20260831112503 14 195 1.6 4.8 0.00 0.00 0.00 84 1010.3
20260831112402 14 226 1.6 4.8 0.00 0.00 0.00 84 1010.2
20260831112307 14 141 1.6 4.8 0.00 0.00 0.00 84 1010.2
20260831112301 14 141 1.6 4.8 0.00 0.00 0.00 84 1010.2
20260831112200 14 141 1.6 4.8 0.00 0.00 0.00 84 1010.2
20260831112148 14 141 1.6 4.8 0.00 0.00 0.00 84 1010.2
20260831111958 14 165 1.6 4.8 0.00 0.00 0.00 84 1010.2
20260831111856 14 146 1.6 4.8 0.00 0.00 0.00 84 1010.2
20260831111752 14 218 1.6 4.8 0.00 0.00 0.00 84 1010.2
20260831111650 14 218 1.6 4.8 0.00 0.00 0.00 83 1010.2
20260831111555 14 218 1.6 4.8 0.00 0.00 0.00 83 1010.1
20260831111549 14 219 1.6 4.8 0.00 0.00 0.00 83 1010.1
20260831111451 14 219 1.6 4.8 0.00 0.00 0.00 83 1010.2
20260831111350 14 219 1.6 4.8 0.00 0.00 0.00 83 1010.2
20260831111244 14 236 1.6 4.8 0.00 0.00 0.00 83 1010.2
20260831111144 14 236 1.6 4.8 0.00 0.00 0.00 83 1010.2
20260831111045 14 242 1.6 4.8 0.00 0.00 0.00 83 1010.2
20260831111030 14 241 1.6 4.8 0.00 0.00 0.00 83 1010.2
20260831110944 14 222 1.6 4.8 0.00 0.00 0.00 83 1010.2
20260831110845 14 219 1.6 4.8 0.00 0.00 0.00 83 1010.2
20260831110740 15 203 1.6 4.8 0.00 0.00 0.00 83 1010.2
20260831110640 15 224 1.6 4.8 0.00 0.00 0.00 83 1010.2
20260831110524 15 224 1.6 4.8 0.00 0.00 0.00 83 1010.2
20260831110440 15 224 1.6 4.8 0.00 0.00 0.00 83 1010.2
20260831110338 15 224 1.6 4.8 0.00 0.00 0.00 82 1010.2
20260831110233 15 219 1.6 4.8 0.00 0.00 0.00 82 1010.2
20260831110132 15 219 1.6 4.8 0.00 0.00 0.00 82 1010.2
20260831110032 15 248 1.6 4.8 0.00 0.00 0.00 82 1010.2
20260831110019 15 249 1.6 4.8 0.00 0.00 0.00 82 1010.2
20260831105933 15 214 1.6 4.8 0.00 0.00 0.00 82 1010.2
20260831105833 15 239 1.6 4.8 0.00 0.00 0.00 82 1010.2
20260831105732 15 236 3.2 8.0 0.00 0.00 0.00 82 1010.2
20260831105630 15 210 3.2 8.0 0.00 0.00 0.00 82 1010.2
20260831105528 15 167 3.2 8.0 0.00 0.00 0.00 82 1010.2
20260831105512 15 230 3.2 8.0 0.00 0.00 0.00 82 1010.2
20260831105429 15 231 3.2 8.0 0.00 0.00 0.00 82 1010.2
20260831105326 15 232 3.2 8.0 0.00 0.00 0.00 82 1010.2
20260831105224 15 218 3.2 8.0 0.00 0.00 0.00 82 1010.3
20260831105125 15 217 3.2 8.0 0.00 0.00 0.00 82 1010.2
20260831105025 15 232 3.2 8.0 0.00 0.00 0.00 82 1010.3
20260831105008 15 225 3.2 8.0 0.00 0.00 0.00 82 1010.3
20260831104922 15 225 3.2 8.0 0.00 0.00 0.00 82 1010.3
20260831104819 15 239 3.2 8.0 0.00 0.00 0.00 82 1010.2
20260831104715 15 195 3.2 8.0 0.00 0.00 0.00 82 1010.2
20260831104614 15 228 1.6 6.4 0.00 0.00 0.00 81 1010.2
20260831104515 15 228 1.6 6.4 0.00 0.00 0.00 81 1010.2
20260831104500 15 228 1.6 6.4 0.00 0.00 0.00 81 1010.2
20260831104415 15 227 1.6 6.4 0.00 0.00 0.00 81 1010.2
20260831104314 15 215 1.6 6.4 0.00 0.00 0.00 81 1010.3
20260831104210 15 203 1.6 4.8 0.00 0.00 0.00 81 1010.3
20260831104109 15 219 1.6 4.8 0.00 0.00 0.00 81 1010.2
20260831104008 15 201 1.6 4.8 0.00 0.00 0.00 81 1010.2
20260831103954 15 226 1.6 4.8 0.00 0.00 0.00 81 1010.2
20260831103908 15 226 1.6 4.8 0.00 0.00 0.00 81 1010.2
20260831103809 15 217 1.6 4.8 0.00 0.00 0.00 81 1010.3
20260831103704 15 212 1.6 4.8 0.00 0.00 0.00 81 1010.3
20260831103604 15 205 1.6 4.8 0.00 0.00 0.00 81 1010.3
20260831103502 15 205 1.6 4.8 0.00 0.00 0.00 81 1010.2
20260831103447 15 205 1.6 4.8 0.00 0.00 0.00 81 1010.2
20260831103403 15 205 1.6 8.0 0.00 0.00 0.00 81 1010.2
20260831103302 15 207 1.6 8.0 0.00 0.00 0.00 81 1010.2
20260831103159 15 230 1.6 8.0 0.00 0.00 0.00 81 1010.2
20260831103057 15 231 1.6 8.0 0.00 0.00 0.00 81 1010.2
20260831102956 15 231 1.6 8.0 0.00 0.00 0.00 80 1010.2
20260831102942 15 139 1.6 8.0 0.00 0.00 0.00 80 1010.2
20260831102856 15 217 1.6 8.0 0.00 0.00 0.00 80 1010.2
20260831102756 15 217 1.6 8.0 0.00 0.00 0.00 80 1010.2
20260831102659 15 222 1.6 8.0 0.00 0.00 0.00 80 1010.2
20260831102652 15 222 1.6 8.0 0.00 0.00 0.00 80 1010.1
20260831102552 15 222 1.6 8.0 0.00 0.00 0.00 80 1010.1
20260831102542 15 222 1.6 8.0 0.00 0.00 0.00 80 1010.2
20260831102353 15 222 1.6 9.7 0.00 0.00 0.00 80 1010.2
20260831102250 15 132 3.2 9.7 0.00 0.00 0.00 80 1010.2
20260831102146 15 238 3.2 9.7 0.00 0.00 0.00 80 1010.2
20260831102054 15 173 1.6 9.7 0.00 0.00 0.00 80 1010.2
20260831101946 15 185 1.6 9.7 0.00 0.00 0.00 80 1010.2
20260831101930 15 136 1.6 9.7 0.00 0.00 0.00 80 1010.2
20260831101847 15 231 1.6 9.7 0.00 0.00 0.00 79 1010.2
20260831101744 15 231 3.2 9.7 0.00 0.00 0.00 79 1010.2
20260831101640 15 231 1.6 9.7 0.00 0.00 0.00 79 1010.1
20260831101538 15 160 3.2 9.7 0.00 0.00 0.00 79 1010.2
20260831101438 15 160 3.2 9.7 0.00 0.00 0.00 79 1010.1
20260831101424 15 162 3.2 9.7 0.00 0.00 0.00 79 1010.1
20260831101339 15 195 3.2 8.0 0.00 0.00 0.00 79 1010.1
20260831101238 15 141 3.2 9.7 0.00 0.00 0.00 79 1010.1
20260831101134 15 188 3.2 9.7 0.00 0.00 0.00 79 1010.1
20260831101033 15 188 3.2 9.7 0.00 0.00 0.00 79 1010.1
20260831100919 15 236 3.2 9.7 0.00 0.00 0.00 79 1010.1
20260831100832 15 212 3.2 9.7 0.00 0.00 0.00 79 1010.1
20260831100731 15 145 3.2 9.7 0.00 0.00 0.00 79 1010.1
20260831100632 15 236 3.2 9.7 0.00 0.00 0.00 79 1010.1
20260831100530 15 224 3.2 9.7 0.00 0.00 0.00 79 1010.1
20260831100412 15 228 3.2 9.7 0.00 0.00 0.00 79 1010.0
20260831100329 15 241 3.2 9.7 0.00 0.00 0.00 79 1010.0
20260831100226 15 177 3.2 9.7 0.00 0.00 0.00 79 1010.0
20260831100120 15 222 3.2 8.0 0.00 0.00 0.00 78 1010.1
20260831100020 15 225 3.2 8.0 0.00 0.00 0.00 78 1010.1
20260831095920 15 217 3.2 8.0 0.00 0.00 0.00 78 1010.1
20260831095906 15 240 3.2 8.0 0.00 0.00 0.00 78 1010.0
20260831095821 15 203 3.2 8.0 0.00 0.00 0.00 78 1010.0
20260831095720 15 233 3.2 8.0 0.00 0.00 0.00 78 1010.0
20260831095614 15 172 3.2 8.0 0.00 0.00 0.00 78 1010.0
20260831095514 15 236 3.2 8.0 0.00 0.00 0.00 78 1010.0
20260831095414 15 214 3.2 8.0 0.00 0.00 0.00 78 1010.0
20260831095400 15 217 3.2 8.0 0.00 0.00 0.00 78 1010.0
20260831095314 15 230 3.2 8.0 0.00 0.00 0.00 78 1010.0
20260831095214 15 218 3.2 9.7 0.00 0.00 0.00 78 1010.0
20260831095112 15 233 3.2 9.7 0.00 0.00 0.00 78 1010.0
20260831095012 15 217 3.2 16.1 0.00 0.00 0.00 78 1010.0
20260831094913 16 223 4.8 16.1 0.00 0.00 0.00 78 1010.0
20260831094854 16 184 4.8 16.1 0.00 0.00 0.00 78 1010.0
20260831094811 16 204 4.8 16.1 0.00 0.00 0.00 78 1010.0
20260831094708 16 218 4.8 16.1 0.00 0.00 0.00 78 1010.0
20260831094605 16 218 4.8 16.1 0.00 0.00 0.00 78 1010.0
20260831094503 16 239 4.8 16.1 0.00 0.00 0.00 77 1010.0
20260831094403 16 225 4.8 16.1 0.00 0.00 0.00 78 1010.0
20260831094348 16 225 4.8 16.1 0.00 0.00 0.00 78 1010.0
20260831094302 16 225 4.8 16.1 0.00 0.00 0.00 78 1009.9
20260831094202 16 204 4.8 16.1 0.00 0.00 0.00 78 1010.0
20260831094058 16 217 4.8 16.1 0.00 0.00 0.00 78 1010.0
20260831093959 16 233 4.8 11.3 0.00 0.00 0.00 77 1009.9
20260831093859 16 240 3.2 11.3 0.00 0.00 0.00 77 1009.9
20260831093842 16 203 3.2 11.3 0.00 0.00 0.00 77 1009.9
20260831093758 16 232 3.2 11.3 0.00 0.00 0.00 77 1010.0
20260831093656 16 233 3.2 11.3 0.00 0.00 0.00 77 1010.0
20260831093600 16 159 3.2 6.4 0.00 0.00 0.00 77 1010.0
20260831093553 16 243 3.2 11.3 0.00 0.00 0.00 77 1010.0
20260831093453 16 239 3.2 11.3 0.00 0.00 0.00 77 1010.0
20260831093442 16 169 3.2 11.3 0.00 0.00 0.00 77 1010.0
20260831093253 16 228 3.2 6.4 0.00 0.00 0.00 77 1010.0
20260831093149 16 239 3.2 6.4 0.00 0.00 0.00 77 1010.0
20260831093045 16 228 3.2 6.4 0.00 0.00 0.00 76 1010.0
20260831092946 16 243 3.2 6.4 0.00 0.00 0.00 76 1010.0
20260831092830 16 240 1.6 6.4 0.00 0.00 0.00 76 1010.0
20260831092745 16 240 1.6 6.4 0.00 0.00 0.00 76 1010.0
20260831092644 16 217 1.6 6.4 0.00 0.00 0.00 76 1010.0
20260831092540 16 233 1.6 6.4 0.00 0.00 0.00 76 1010.0
20260831092438 16 233 1.6 6.4 0.00 0.00 0.00 76 1010.0
20260831092339 16 233 1.6 4.8 0.00 0.00 0.00 75 1010.1
20260831092324 16 226 1.6 4.8 0.00 0.00 0.00 75 1010.0
20260831092238 16 239 1.6 4.8 0.00 0.00 0.00 75 1010.0
20260831092137 16 234 1.6 4.8 0.00 0.00 0.00 75 1010.1
20260831092039 16 235 1.6 4.8 0.00 0.00 0.00 75 1010.0
20260831091937 16 179 1.6 4.8 0.00 0.00 0.00 74 1010.0
20260831091836 16 179 1.6 4.8 0.00 0.00 0.00 74 1010.0
20260831091818 16 217 1.6 4.8 0.00 0.00 0.00 74 1010.0
20260831091734 16 217 1.6 4.8 0.00 0.00 0.00 74 1010.0
20260831091632 16 217 1.6 4.8 0.00 0.00 0.00 74 1010.0
20260831091528 16 217 1.6 4.8 0.00 0.00 0.00 74 1010.0
20260831091426 16 191 1.6 4.8 0.00 0.00 0.00 74 1010.0
20260831091327 16 228 1.6 4.8 0.00 0.00 0.00 73 1010.0
20260831091313 16 211 1.6 4.8 0.00 0.00 0.00 73 1010.0
20260831091226 16 155 1.6 4.8 0.00 0.00 0.00 73 1010.0
20260831091126 16 155 1.6 4.8 0.00 0.00 0.00 73 1010.0
20260831091024 16 155 1.6 4.8 0.00 0.00 0.00 73 1010.0
20260831090924 16 194 1.6 4.8 0.00 0.00 0.00 73 1010.0
20260831090823 16 204 1.6 6.4 0.00 0.00 0.00 73 1010.0
20260831090806 16 214 3.2 6.4 0.00 0.00 0.00 73 1010.0
20260831090723 16 231 3.2 6.4 0.00 0.00 0.00 73 1010.0
20260831090622 16 230 3.2 6.4 0.00 0.00 0.00 73 1010.0
20260831090518 16 193 1.6 6.4 0.00 0.00 0.00 73 1010.0
20260831090418 16 235 1.6 6.4 0.00 0.00 0.00 73 1009.9
20260831090317 16 231 1.6 6.4 0.00 0.00 0.00 73 1010.0
20260831090300 16 232 3.2 6.4 0.00 0.00 0.00 73 1009.9
20260831090216 16 232 3.2 6.4 0.00 0.00 0.00 73 1009.9
20260831090114 16 221 3.2 6.4 0.00 0.00 0.00 73 1009.9
20260831090008 16 158 3.2 6.4 0.00 0.00 0.00 72 1009.9
20260831085908 16 231 1.6 6.4 0.00 0.00 0.00 72 1009.9
20260831085808 16 243 1.6 6.4 0.00 0.00 0.00 72 1009.9
20260831085754 16 250 1.6 6.4 0.00 0.00 0.00 72 1009.9
20260831085709 16 216 1.6 6.4 0.00 0.00 0.00 72 1009.9
20260831085608 16 238 1.6 6.4 0.00 0.00 0.00 72 1009.9
20260831085503 16 238 1.6 6.4 0.00 0.00 0.00 72 1009.9
20260831085402 16 216 3.2 6.4 0.00 0.00 0.00 72 1009.9
20260831085306 16 248 3.2 6.4 0.00 0.00 0.00 72 1009.9
20260831085248 16 239 3.2 6.4 0.00 0.00 0.00 72 1009.9
20260831085203 16 155 3.2 6.4 0.00 0.00 0.00 72 1009.9
20260831085102 16 235 3.2 6.4 0.00 0.00 0.00 72 1009.9
20260831085002 16 188 3.2 6.4 0.00 0.00 0.00 71 1010.0
20260831084901 16 195 3.2 6.4 0.00 0.00 0.00 71 1010.0
20260831084801 16 194 3.2 9.7 0.00 0.00 0.00 71 1010.0
20260831084742 17 194 3.2 9.7 0.00 0.00 0.00 71 1010.0
20260831084659 17 193 3.2 9.7 0.00 0.00 0.00 71 1010.0
20260831084558 17 201 3.2 9.7 0.00 0.00 0.00 71 1010.0
20260831084452 17 231 3.2 9.7 0.00 0.00 0.00 71 1010.0
20260831084350 17 223 3.2 9.7 0.00 0.00 0.00 71 1010.0
20260831084250 17 214 3.2 9.7 0.00 0.00 0.00 71 1010.0
20260831084236 17 240 3.2 9.7 0.00 0.00 0.00 71 1010.0
20260831084151 17 190 3.2 9.7 0.00 0.00 0.00 71 1010.0
20260831084050 17 200 3.2 9.7 0.00 0.00 0.00 71 1010.0
20260831083948 17 224 3.2 9.7 0.00 0.00 0.00 71 1010.0
20260831083849 17 219 3.2 8.0 0.00 0.00 0.00 70 1010.0
20260831083749 17 161 3.2 8.0 0.00 0.00 0.00 70 1010.1
20260831083730 17 149 3.2 8.0 0.00 0.00 0.00 70 1010.1
20260831083646 17 233 3.2 11.3 0.00 0.00 0.00 70 1010.1
20260831083544 17 233 3.2 11.3 0.00 0.00 0.00 70 1010.0
20260831083441 17 253 3.2 11.3 0.00 0.00 0.00 70 1010.1
20260831083338 17 190 3.2 11.3 0.00 0.00 0.00 70 1010.1
20260831083238 17 215 4.8 11.3 0.00 0.00 0.00 70 1010.1
20260831083224 17 216 4.8 11.3 0.00 0.00 0.00 70 1010.1
20260831083139 17 207 3.2 11.3 0.00 0.00 0.00 70 1010.1
20260831083038 17 158 3.2 11.3 0.00 0.00 0.00 70 1010.1
20260831082942 17 228 3.2 11.3 0.00 0.00 0.00 69 1010.1
20260831082933 17 158 3.2 11.3 0.00 0.00 0.00 70 1010.1
20260831082833 17 214 3.2 11.3 0.00 0.00 0.00 70 1010.1
20260831082824 17 241 3.2 11.3 0.00 0.00 0.00 70 1010.1
20260831082633 17 232 3.2 9.7 0.00 0.00 0.00 69 1010.1
20260831082532 17 186 4.8 11.3 0.00 0.00 0.00 69 1010.1
20260831082430 17 208 4.8 12.9 0.00 0.00 0.00 69 1010.1
20260831082330 17 217 4.8 12.9 0.00 0.00 0.00 69 1010.0
20260831082231 17 239 4.8 12.9 0.00 0.00 0.00 69 1010.0
20260831082212 17 212 4.8 12.9 0.00 0.00 0.00 69 1010.0
20260831082128 17 141 4.8 12.9 0.00 0.00 0.00 69 1010.0
20260831082026 17 204 4.8 12.9 0.00 0.00 0.00 69 1010.1
20260831081922 17 248 4.8 12.9 0.00 0.00 0.00 69 1010.1
20260831081820 17 145 4.8 12.9 0.00 0.00 0.00 69 1010.1
20260831081721 17 253 4.8 12.9 0.00 0.00 0.00 69 1010.1
20260831081710 17 264 3.2 12.9 0.00 0.00 0.00 69 1010.1
20260831081620 17 208 3.2 12.9 0.00 0.00 0.00 69 1010.1
20260831081520 17 226 3.2 12.9 0.00 0.00 0.00 69 1010.1
20260831081415 17 230 3.2 9.7 0.00 0.00 0.00 69 1010.1
20260831081314 17 218 3.2 9.7 0.00 0.00 0.00 69 1010.1
20260831081209 17 191 3.2 9.7 0.00 0.00 0.00 68 1010.1
20260831081114 17 208 3.2 9.7 0.00 0.00 0.00 68 1010.1
20260831081013 17 232 3.2 9.7 0.00 0.00 0.00 69 1010.1
20260831080908 17 210 3.2 9.7 0.00 0.00 0.00 68 1010.1
20260831080809 17 215 3.2 9.7 0.00 0.00 0.00 69 1010.1
20260831080709 17 204 3.2 9.7 0.00 0.00 0.00 69 1010.1
20260831080608 17 195 3.2 9.7 0.00 0.00 0.00 69 1010.1
20260831080508 17 230 3.2 8.0 0.00 0.00 0.00 69 1010.1
20260831080407 17 150 3.2 8.0 0.00 0.00 0.00 69 1010.1
20260831080306 17 222 3.2 8.0 0.00 0.00 0.00 69 1010.1
20260831080205 17 167 3.2 11.3 0.00 0.00 0.00 69 1010.1
20260831080105 17 212 3.2 11.3 0.00 0.00 0.00 69 1010.1
20260831080003 17 165 3.2 11.3 0.00 0.00 0.00 69 1010.1
20260831075856 17 228 3.2 11.3 0.00 0.00 0.00 69 1010.1
20260831075756 17 226 4.8 11.3 0.00 0.00 0.00 69 1010.1
20260831075710 17 240 4.8 11.3 0.00 0.00 0.00 69 1010.1
20260831075656 17 240 4.8 11.3 0.00 0.00 0.00 69 1010.1
20260831075556 17 218 4.8 12.9 0.00 0.00 0.00 69 1010.1
20260831075456 17 225 4.8 12.9 0.00 0.00 0.00 69 1010.1
20260831075351 17 203 4.8 12.9 0.00 0.00 0.00 69 1010.1
20260831075250 17 239 3.2 12.9 0.00 0.00 0.00 69 1010.1
20260831075208 17 212 3.2 12.9 0.00 0.00 0.00 69 1010.1
20260831075150 17 158 3.2 12.9 0.00 0.00 0.00 69 1010.1
20260831075051 17 243 3.2 12.9 0.00 0.00 0.00 69 1010.1
20260831074950 17 235 3.2 12.9 0.00 0.00 0.00 69 1010.1
20260831074847 17 204 3.2 12.9 0.00 0.00 0.00 69 1010.1
20260831074744 17 215 3.2 12.9 0.00 0.00 0.00 69 1010.1
20260831074707 17 210 3.2 12.9 0.00 0.00 0.00 69 1010.1
20260831074644 17 210 3.2 12.9 0.00 0.00 0.00 69 1010.1
20260831074544 17 236 1.6 9.7 0.00 0.00 0.00 69 1010.1
20260831074444 17 114 1.6 6.4 0.00 0.00 0.00 70 1010.2
20260831074340 17 114 1.6 6.4 0.00 0.00 0.00 69 1010.1
20260831074238 17 114 3.2 6.4 0.00 0.00 0.00 69 1010.1
20260831074206 17 146 3.2 6.4 0.00 0.00 0.00 69 1010.1
20260831074139 17 148 3.2 6.4 0.00 0.00 0.00 69 1010.1
20260831074038 17 214 3.2 6.4 0.00 0.00 0.00 70 1010.1
20260831073938 17 222 1.6 6.4 0.00 0.00 0.00 70 1010.1
20260831073838 17 203 1.6 6.4 0.00 0.00 0.00 70 1010.1
20260831073736 17 191 1.6 6.4 0.00 0.00 0.00 70 1010.1
20260831073706 17 208 1.6 6.4 0.00 0.00 0.00 70 1010.1
20260831073637 17 221 1.6 6.4 0.00 0.00 0.00 70 1010.1
20260831073535 17 219 1.6 6.4 0.00 0.00 0.00 70 1010.1
20260831073432 17 166 1.6 6.4 0.00 0.00 0.00 70 1010.1
20260831073327 17 217 1.6 6.4 0.00 0.00 0.00 70 1010.1
20260831073226 17 143 1.6 4.8 0.00 0.00 0.00 70 1010.0
20260831073205 17 205 1.6 4.8 0.00 0.00 0.00 70 1010.0
20260831073127 17 165 1.6 6.4 0.00 0.00 0.00 70 1010.0
20260831073026 17 191 1.6 6.4 0.00 0.00 0.00 70 1010.0
20260831072936 17 222 1.6 6.4 0.00 0.00 0.00 70 1010.1
20260831072926 17 226 1.6 6.4 0.00 0.00 0.00 70 1010.1
20260831072823 17 217 1.6 6.4 0.00 0.00 0.00 70 1010.0
20260831072815 17 222 1.6 6.4 0.00 0.00 0.00 70 1010.0
20260831072620 17 145 1.6 6.4 0.00 0.00 0.00 70 1010.1
20260831072521 17 158 1.6 6.4 0.00 0.00 0.00 70 1010.1
20260831072420 17 158 1.6 6.4 0.00 0.00 0.00 70 1010.0
20260831072316 17 210 1.6 6.4 0.00 0.00 0.00 70 1010.0
20260831072215 17 140 1.6 6.4 0.00 0.00 0.00 70 1010.0
20260831072205 17 131 1.6 6.4 0.00 0.00 0.00 70 1010.1
20260831072114 17 125 1.6 3.2 0.00 0.00 0.00 70 1010.1
20260831072014 17 232 1.6 3.2 0.00 0.00 0.00 70 1010.1
20260831071914 17 125 1.6 3.2 0.00 0.00 0.00 70 1010.1
20260831071808 17 119 1.6 3.2 0.00 0.00 0.00 70 1010.1
20260831071712 17 118 1.6 4.8 0.00 0.00 0.00 70 1010.1
20260831071706 17 119 1.6 4.8 0.00 0.00 0.00 70 1010.1
20260831071651 17 148 1.6 4.8 0.00 0.00 0.00 70 1010.0
20260831071609 17 119 1.6 4.8 0.00 0.00 0.00 70 1010.0
20260831071535 17 185 1.6 4.8 0.00 0.00 0.00 70 1010.0
20260831071409 17 200 1.6 4.8 0.00 0.00 0.00 70 1010.0
20260831071318 17 200 1.6 4.8 0.00 0.00 0.00 70 1010.1
20260831071203 17 148 1.6 4.8 0.00 0.00 0.00 70 1010.0
20260831071102 17 210 1.6 4.8 0.00 0.00 0.00 70 1010.0
20260831071003 17 146 1.6 4.8 0.00 0.00 0.00 70 1010.0
20260831070901 17 158 1.6 8.0 0.00 0.00 0.00 70 1010.0
20260831070801 17 239 1.6 8.0 0.00 0.00 0.00 70 1010.0
20260831070706 17 210 1.6 8.0 0.00 0.00 0.00 70 1009.9
20260831070701 17 210 1.6 8.0 0.00 0.00 0.00 70 1009.9
20260831070601 17 208 1.6 8.0 0.00 0.00 0.00 70 1009.9
20260831070501 17 212 1.6 8.0 0.00 0.00 0.00 70 1009.9
20260831070356 17 221 1.6 8.0 0.00 0.00 0.00 70 1010.0
20260831070255 17 195 1.6 8.0 0.00 0.00 0.00 70 1009.9
20260831070204 17 194 1.6 8.0 0.00 0.00 0.00 69 1009.9
20260831070154 17 193 1.6 8.0 0.00 0.00 0.00 69 1009.9
20260831070055 17 204 1.6 8.0 0.00 0.00 0.00 69 1010.0
20260831065952 17 232 0.0 8.0 0.00 0.00 0.00 70 1009.9
20260831065850 17 132 0.0 3.2 0.00 0.00 0.00 70 1009.9
20260831065746 17 123 0.0 3.2 0.00 0.00 0.00 70 1009.9
20260831065701 17 217 0.0 3.2 0.00 0.00 0.00 70 1009.8
20260831065644 17 221 0.0 3.2 0.00 0.00 0.00 69 1009.8
20260831065545 17 229 0.0 3.2 0.00 0.00 0.00 69 1009.9
20260831065445 17 229 0.0 3.2 0.00 0.00 0.00 69 1009.9
20260831065344 17 135 0.0 1.6 0.00 0.00 0.00 69 1009.9
20260831065242 17 136 0.0 1.6 0.00 0.00 0.00 69 1009.9
20260831065203 17 135 0.0 4.8 0.00 0.00 0.00 69 1009.9
20260831065141 18 136 0.0 4.8 0.00 0.00 0.00 69 1009.9
20260831065040 18 136 0.0 4.8 0.00 0.00 0.00 69 1009.9
20260831064938 18 131 1.6 4.8 0.00 0.00 0.00 69 1009.9
20260831064835 18 131 1.6 4.8 0.00 0.00 0.00 69 1009.9
20260831064737 18 131 1.6 4.8 0.00 0.00 0.00 69 1010.0
20260831064657 18 131 1.6 4.8 0.00 0.00 0.00 68 1009.9
20260831064635 18 131 1.6 4.8 0.00 0.00 0.00 69 1009.9
20260831064535 18 131 1.6 4.8 0.00 0.00 0.00 69 1009.9
20260831064433 18 229 1.6 4.8 0.00 0.00 0.00 68 1010.0
20260831064416 18 136 1.6 4.8 0.00 0.00 0.00 68 1009.9
20260831064330 18 135 1.6 4.8 0.00 0.00 0.00 68 1009.9
20260831064259 18 135 1.6 4.8 0.00 0.00 0.00 68 1009.9
20260831064128 18 135 1.6 4.8 0.00 0.00 0.00 68 1009.9
20260831064029 18 129 1.6 4.8 0.00 0.00 0.00 68 1009.9
20260831063925 18 217 1.6 4.8 0.00 0.00 0.00 68 1009.9
20260831063907 18 131 3.2 4.8 0.00 0.00 0.00 68 1009.9
20260831063824 18 131 1.6 4.8 0.00 0.00 0.00 68 1009.9
20260831063755 18 131 3.2 4.8 0.00 0.00 0.00 68 1009.9
20260831063623 18 131 3.2 4.8 0.00 0.00 0.00 68 1009.9
20260831063523 18 134 3.2 4.8 0.00 0.00 0.00 68 1009.9
20260831063420 18 135 1.6 4.8 0.00 0.00 0.00 68 1010.0
20260831063320 18 161 1.6 4.8 0.00 0.00 0.00 68 1010.0
20260831063216 18 142 1.6 4.8 0.00 0.00 0.00 68 1009.9
20260831063138 18 130 1.6 4.8 0.00 0.00 0.00 68 1009.9
20260831063116 18 142 1.6 4.8 0.00 0.00 0.00 67 1009.9
20260831063017 18 127 1.6 4.8 0.00 0.00 0.00 67 1009.9
20260831062914 18 127 1.6 4.8 0.00 0.00 0.00 67 1009.9
20260831062814 18 124 1.6 4.8 0.00 0.00 0.00 67 1009.9
20260831062707 18 134 1.6 4.8 0.00 0.00 0.00 67 1009.9
20260831062632 18 143 1.6 4.8 0.00 0.00 0.00 67 1009.9
20260831062607 18 134 1.6 4.8 0.00 0.00 0.00 67 1009.9
20260831062506 18 141 1.6 4.8 0.00 0.00 0.00 67 1009.9
20260831062407 18 140 1.6 4.8 0.00 0.00 0.00 67 1009.9
20260831062306 18 139 1.6 4.8 0.00 0.00 0.00 67 1009.9
20260831062206 18 124 1.6 4.8 0.00 0.00 0.00 67 1009.9
20260831062127 18 181 1.6 4.8 0.00 0.00 0.00 67 1009.9
20260831062105 18 210 1.6 8.0 0.00 0.00 0.00 67 1009.9
20260831062003 18 210 1.6 9.7 0.00 0.00 0.00 67 1009.8
20260831061903 18 228 1.6 9.7 0.00 0.00 0.00 66 1009.8
20260831061800 18 130 3.2 9.7 0.00 0.00 0.00 66 1009.9
20260831061654 18 129 3.2 11.3 0.00 0.00 0.00 66 1009.8
20260831061621 18 131 3.2 11.3 0.00 0.00 0.00 66 1009.8
20260831061555 18 221 3.2 11.3 0.00 0.00 0.00 66 1009.8
20260831061454 18 221 3.2 11.3 0.00 0.00 0.00 66 1009.8
20260831061356 18 223 3.2 11.3 0.00 0.00 0.00 66 1009.8
20260831061317 19 195 4.8 17.7 0.00 0.00 0.00 66 1009.7
20260831061254 18 228 3.2 11.3 0.00 0.00 0.00 66 1009.8
20260831061221 19 207 3.2 11.3 0.00 0.00 0.00 66 1009.8
20260831061209 19 204 3.2 11.3 0.00 0.00 0.00 66 1009.8
20260831061053 19 248 3.2 11.3 0.00 0.00 0.00 66 1009.8
20260831060953 19 226 4.8 11.3 0.00 0.00 0.00 66 1009.7
20260831060936 19 229 4.8 11.3 0.00 0.00 0.00 66 1009.8
20260831060748 19 216 4.8 17.7 0.00 0.00 0.00 66 1009.7
20260831060724 19 246 4.8 17.7 0.00 0.00 0.00 66 1009.7
20260831060546 19 200 4.8 17.7 0.00 0.00 0.00 66 1009.7
20260831060444 19 248 4.8 17.7 0.00 0.00 0.00 66 1009.7
20260831060343 19 250 6.4 17.7 0.00 0.00 0.00 65 1009.6
20260831060240 19 224 6.4 17.7 0.00 0.00 0.00 66 1009.7
20260831060135 19 212 6.4 17.7 0.00 0.00 0.00 65 1009.7
20260831060113 19 248 4.8 17.7 0.00 0.00 0.00 65 1009.6
20260831060035 19 212 4.8 17.7 0.00 0.00 0.00 65 1009.6
20260831055935 19 225 4.8 17.7 0.00 0.00 0.00 65 1009.7
20260831055834 19 214 4.8 12.9 0.00 0.00 0.00 65 1009.7
20260831055735 19 248 4.8 12.9 0.00 0.00 0.00 65 1009.7
20260831055632 19 230 4.8 12.9 0.00 0.00 0.00 65 1009.7
20260831055619 19 233 4.8 9.7 0.00 0.00 0.00 65 1009.7
20260831055529 19 224 4.8 9.7 0.00 0.00 0.00 65 1009.7
20260831055429 19 208 4.8 9.7 0.00 0.00 0.00 65 1009.7
20260831055328 19 224 4.8 9.7 0.00 0.00 0.00 65 1009.8
20260831055228 19 259 4.8 12.9 0.00 0.00 0.00 65 1009.7
20260831055129 19 231 4.8 12.9 0.00 0.00 0.00 65 1009.8
20260831055109 19 232 4.8 12.9 0.00 0.00 0.00 65 1009.7
20260831055026 19 207 4.8 12.9 0.00 0.00 0.00 65 1009.7
20260831054926 19 232 4.8 12.9 0.00 0.00 0.00 65 1009.7
20260831054825 19 231 4.8 14.5 0.00 0.00 0.00 65 1009.7
20260831054722 19 233 4.8 14.5 0.00 0.00 0.00 64 1009.7
20260831054617 20 253 4.8 16.1 0.00 0.00 0.00 65 1009.7
20260831054606 20 246 6.4 16.1 0.00 0.00 0.00 65 1009.7
20260831054517 20 241 6.4 16.1 0.00 0.00 0.00 64 1009.7
20260831054417 20 240 6.4 16.1 0.00 0.00 0.00 64 1009.7
20260831054317 20 239 6.4 16.1 0.00 0.00 0.00 64 1009.7
20260831054216 20 229 6.4 16.1 0.00 0.00 0.00 64 1009.7
20260831054113 20 243 6.4 16.1 0.00 0.00 0.00 64 1009.7
20260831054107 20 246 6.4 16.1 0.00 0.00 0.00 64 1009.7
20260831054013 20 238 6.4 16.1 0.00 0.00 0.00 64 1009.7
20260831053912 20 236 6.4 16.1 0.00 0.00 0.00 64 1009.7
20260831053813 20 223 6.4 16.1 0.00 0.00 0.00 64 1009.8
20260831053710 20 226 6.4 11.3 0.00 0.00 0.00 64 1009.7
20260831053607 20 245 6.4 11.3 0.00 0.00 0.00 64 1009.7
20260831053504 20 217 6.4 11.3 0.00 0.00 0.00 64 1009.8
20260831053404 20 260 4.8 11.3 0.00 0.00 0.00 64 1009.7
20260831053305 20 236 4.8 11.3 0.00 0.00 0.00 63 1009.8
20260831053204 20 266 4.8 11.3 0.00 0.00 0.00 63 1009.7
20260831053106 20 229 4.8 11.3 0.00 0.00 0.00 63 1009.7
20260831053058 20 229 4.8 11.3 0.00 0.00 0.00 63 1009.7
20260831052959 20 233 4.8 11.3 0.00 0.00 0.00 63 1009.7
20260831052858 20 221 4.8 11.3 0.00 0.00 0.00 63 1009.7
20260831052800 20 170 4.8 12.9 0.00 0.00 0.00 63 1009.8
20260831052658 20 243 6.4 12.9 0.00 0.00 0.00 63 1009.7
20260831052617 20 228 6.4 14.5 0.00 0.00 0.00 63 1009.7
20260831052559 20 221 6.4 14.5 0.00 0.00 0.00 63 1009.7
20260831052459 20 242 6.4 14.5 0.00 0.00 0.00 63 1009.7
20260831052357 20 232 6.4 14.5 0.00 0.00 0.00 62 1009.8
20260831052253 20 250 6.4 14.5 0.00 0.00 0.00 62 1009.8
20260831052151 20 207 8.0 19.3 0.00 0.00 0.00 62 1009.8
20260831052104 20 226 8.0 19.3 0.00 0.00 0.00 62 1009.8
20260831052047 20 305 8.0 19.3 0.00 0.00 0.00 62 1009.8
20260831051947 20 233 8.0 19.3 0.00 0.00 0.00 62 1009.8
20260831051847 20 233 6.4 19.3 0.00 0.00 0.00 62 1009.8
20260831051746 20 235 6.4 19.3 0.00 0.00 0.00 62 1009.7
20260831051645 20 242 6.4 19.3 0.00 0.00 0.00 62 1009.8
20260831051604 20 231 6.4 19.3 0.00 0.00 0.00 62 1009.8
20260831051544 20 200 6.4 19.3 0.00 0.00 0.00 62 1009.8
20260831051444 20 211 6.4 19.3 0.00 0.00 0.00 62 1009.8
20260831051345 20 238 6.4 19.3 0.00 0.00 0.00 61 1009.8
20260831051243 20 257 6.4 19.3 0.00 0.00 0.00 61 1009.8
20260831051140 20 255 6.4 16.1 0.00 0.00 0.00 61 1009.8
20260831051104 20 232 4.8 16.1 0.00 0.00 0.00 61 1009.8
20260831051035 20 248 4.8 16.1 0.00 0.00 0.00 61 1009.8
20260831050934 20 232 6.4 16.1 0.00 0.00 0.00 61 1009.8
20260831050835 20 246 6.4 16.1 0.00 0.00 0.00 61 1009.8
20260831050734 20 245 8.0 17.7 0.00 0.00 0.00 61 1009.7
20260831050634 20 234 8.0 17.7 0.00 0.00 0.00 61 1009.8
20260831050604 20 262 6.4 17.7 0.00 0.00 0.00 61 1009.8
20260831050533 20 242 6.4 17.7 0.00 0.00 0.00 61 1009.8
20260831050433 21 276 8.0 17.7 0.00 0.00 0.00 61 1009.8
20260831050341 21 250 8.0 17.7 0.00 0.00 0.00 61 1009.8
20260831050331 21 169 8.0 17.7 0.00 0.00 0.00 61 1009.8
20260831050234 21 214 8.0 17.7 0.00 0.00 0.00 61 1009.8
20260831050225 21 259 8.0 17.7 0.00 0.00 0.00 61 1009.8
20260831050047 21 240 6.4 16.1 0.00 0.00 0.00 60 1009.8
20260831050025 21 236 8.0 17.7 0.00 0.00 0.00 61 1009.8
20260831045953 21 188 8.0 17.7 0.00 0.00 0.00 60 1009.7
20260831045854 21 235 6.4 16.1 0.00 0.00 0.00 60 1009.8
20260831045723 21 233 6.4 16.1 0.00 0.00 0.00 60 1009.7
20260831045715 21 231 6.4 16.1 0.00 0.00 0.00 60 1009.7
20260831045516 21 224 6.4 19.3 0.00 0.00 0.00 60 1009.8
20260831045416 21 250 6.4 19.3 0.00 0.00 0.00 60 1009.7
20260831045316 21 250 6.4 19.3 0.00 0.00 0.00 60 1009.7
20260831045217 21 239 6.4 19.3 0.00 0.00 0.00 60 1009.7
20260831045116 21 193 6.4 19.3 0.00 0.00 0.00 60 1009.7
20260831045103 21 246 6.4 19.3 0.00 0.00 0.00 60 1009.7
20260831045011 21 212 6.4 19.3 0.00 0.00 0.00 60 1009.6
20260831044910 21 242 6.4 19.3 0.00 0.00 0.00 60 1009.7
20260831044824 21 271 6.4 19.3 0.00 0.00 0.00 60 1009.6
20260831044811 21 221 8.0 19.3 0.00 0.00 0.00 60 1009.7
20260831044720 21 245 8.0 19.3 0.00 0.00 0.00 60 1009.6
20260831044712 21 217 8.0 19.3 0.00 0.00 0.00 60 1009.6
20260831044510 21 205 6.4 14.5 0.00 0.00 0.00 60 1009.6
20260831044411 21 231 6.4 14.5 0.00 0.00 0.00 60 1009.6
20260831044311 21 233 6.4 17.7 0.00 0.00 0.00 60 1009.6
20260831044211 21 235 6.4 17.7 0.00 0.00 0.00 60 1009.6
20260831044110 21 250 6.4 17.7 0.00 0.00 0.00 60 1009.6
20260831044104 21 243 6.4 17.7 0.00 0.00 0.00 60 1009.6
20260831044010 21 269 6.4 17.7 0.00 0.00 0.00 60 1009.6
20260831043911 21 278 6.4 17.7 0.00 0.00 0.00 60 1009.6
20260831043816 21 253 8.0 19.3 0.00 0.00 0.00 59 1009.6
20260831043811 21 218 8.0 17.7 0.00 0.00 0.00 59 1009.6
20260831043714 21 215 6.4 17.7 0.00 0.00 0.00 59 1009.6
20260831043706 21 219 6.4 19.3 0.00 0.00 0.00 59 1009.6
20260831043511 21 257 8.0 19.3 0.00 0.00 0.00 59 1009.6
20260831043410 21 219 8.0 19.3 0.00 0.00 0.00 59 1009.6
20260831043306 21 256 8.0 19.3 0.00 0.00 0.00 59 1009.6
20260831043207 21 230 8.0 19.3 0.00 0.00 0.00 59 1009.6
20260831043107 21 245 8.0 19.3 0.00 0.00 0.00 59 1009.6
20260831043059 21 224 8.0 19.3 0.00 0.00 0.00 59 1009.6
20260831043006 21 263 8.0 19.3 0.00 0.00 0.00 59 1009.6
20260831042903 21 192 6.4 19.3 0.00 0.00 0.00 59 1009.6
20260831042756 21 242 6.4 19.3 0.00 0.00 0.00 59 1009.6
20260831042657 21 277 6.4 19.3 0.00 0.00 0.00 59 1009.6
20260831042600 21 225 6.4 16.1 0.00 0.00 0.00 59 1009.6
20260831042556 21 242 6.4 16.1 0.00 0.00 0.00 59 1009.6
20260831042458 21 257 6.4 17.7 0.00 0.00 0.00 58 1009.5
20260831042356 21 239 6.4 17.7 0.00 0.00 0.00 58 1009.6
20260831042315 21 224 8.0 19.3 0.00 0.00 0.00 58 1009.5
20260831042255 21 276 6.4 17.7 0.00 0.00 0.00 58 1009.6
20260831042210 21 256 8.0 17.7 0.00 0.00 0.00 58 1009.5
20260831042200 21 224 8.0 19.3 0.00 0.00 0.00 58 1009.5
20260831041954 21 216 8.0 19.3 0.00 0.00 0.00 58 1009.5
20260831041854 21 224 8.0 19.3 0.00 0.00 0.00 58 1009.5
20260831041823 21 242 8.0 19.3 0.00 0.00 0.00 57 1009.5
20260831041754 21 225 8.0 19.3 0.00 0.00 0.00 58 1009.4
20260831041714 21 228 8.0 19.3 0.00 0.00 0.00 58 1009.5
20260831041702 21 242 8.0 19.3 0.00 0.00 0.00 57 1009.5
20260831041458 22 203 8.0 19.3 0.00 0.00 0.00 57 1009.5
20260831041353 22 259 9.7 19.3 0.00 0.00 0.00 57 1009.5
20260831041253 22 218 9.7 19.3 0.00 0.00 0.00 57 1009.5
20260831041150 22 231 8.0 19.3 0.00 0.00 0.00 57 1009.5
20260831041056 22 228 8.0 17.7 0.00 0.00 0.00 57 1009.5
20260831041051 22 221 8.0 17.7 0.00 0.00 0.00 57 1009.5
20260831040951 22 174 8.0 17.7 0.00 0.00 0.00 57 1009.5
20260831040850 22 212 9.7 17.7 0.00 0.00 0.00 57 1009.5